Time,TemperatureF,DewpointF,PressureIn,WindDirection,WindDirectionDegrees,WindSpeedMPH,WindSpeedGustMPH,Humidity,HourlyPrecipIn,Conditions,Clouds,dailyrainin,SoftwareType,DateUTC
2013-07-14 00:00:00,71.4,62.7,29.99,ESE,105,0.0,1.0,74,0.00,,,0.00,VWS V14.01,2013-07-14 05:00:00,
2013-07-14 00:02:00,71.4,62.7,29.99,ESE,105,0.0,0.0,74,0.00,,CLR,0.00,VWS V14.01,2013-07-14 05:02:00,
2013-07-14 00:03:00,71.4,62.7,29.99,ESE,105,0.0,0.0,74,0.00,,CLR,0.00,VWS V14.01,2013-07-14 05:03:00,
2013-07-14 00:07:00,71.2,62.5,29.99,ESE,105,0.0,0.0,74,0.00,,CLR,0.00,VWS V14.01,2013-07-14 05:07:00,
2013-07-14 00:08:00,71.2,62.5,29.99,ESE,105,0.0,0.0,74,0.00,,CLR,0.00,VWS V14.01,2013-07-14 05:08:00,
2013-07-14 00:12:00,71.0,62.3,29.99,ESE,105,0.0,0.0,74,0.00,,CLR,0.00,VWS V14.01,2013-07-14 05:12:00,
2013-07-14 00:13:00,71.0,62.3,29.99,ESE,105,0.0,0.0,74,0.00,,CLR,0.00,VWS V14.01,2013-07-14 05:13:00,
2013-07-14 00:17:00,70.7,62.4,29.99,ESE,105,0.0,0.0,75,0.00,,CLR,0.00,VWS V14.01,2013-07-14 05:17:00,
2013-07-14 00:18:00,70.7,62.4,29.99,ESE,105,0.0,0.0,75,0.00,,CLR,0.00,VWS V14.01,2013-07-14 05:18:00,
2013-07-14 00:22:00,70.5,62.2,29.99,ESE,105,0.0,0.0,75,0.00,,CLR,0.00,VWS V14.01,2013-07-14 05:22:00,
2013-07-14 00:23:00,70.5,62.2,29.99,ESE,105,0.0,0.0,75,0.00,,CLR,0.00,VWS V14.01,2013-07-14 05:23:00,
2013-07-14 00:28:00,70.5,62.2,29.99,ESE,105,0.0,0.0,75,0.00,,CLR,0.00,VWS V14.01,2013-07-14 05:28:00,
2013-07-14 00:30:00,70.5,62.2,29.99,ESE,105,0.0,0.0,75,0.00,,,0.00,VWS V14.01,2013-07-14 05:30:00,
2013-07-14 00:33:00,70.3,62.0,29.99,East,100,0.0,0.0,75,0.00,,CLR,0.00,VWS V14.01,2013-07-14 05:33:00,
2013-07-14 00:34:00,70.3,62.0,29.99,East,100,0.0,0.0,75,0.00,,CLR,0.00,VWS V14.01,2013-07-14 05:34:00,
2013-07-14 00:38:00,70.3,62.0,29.99,ESE,111,0.0,1.0,75,0.00,,CLR,0.00,VWS V14.01,2013-07-14 05:38:00,
2013-07-14 00:39:00,70.2,61.9,29.99,ESE,111,0.0,1.0,75,0.00,,CLR,0.00,VWS V14.01,2013-07-14 05:39:00,
2013-07-14 00:43:00,70.0,62.1,29.99,ESE,111,0.0,1.0,76,0.00,,CLR,0.00,VWS V14.01,2013-07-14 05:43:00,
2013-07-14 00:44:00,70.0,62.1,29.99,ESE,111,0.0,1.0,76,0.00,,CLR,0.00,VWS V14.01,2013-07-14 05:44:00,
2013-07-14 00:48:00,69.8,61.9,29.99,ESE,112,0.0,1.0,76,0.00,,CLR,0.00,VWS V14.01,2013-07-14 05:48:00,
2013-07-14 00:49:00,69.8,61.9,29.99,ESE,112,0.0,1.0,76,0.00,,CLR,0.00,VWS V14.01,2013-07-14 05:49:00,
2013-07-14 00:53:00,69.5,62.0,29.99,NE,46,0.0,1.0,77,0.00,,CLR,0.00,VWS V14.01,2013-07-14 05:53:00,
2013-07-14 00:54:00,69.5,62.0,29.99,NE,46,0.0,1.0,77,0.00,,CLR,0.00,VWS V14.01,2013-07-14 05:54:00,
2013-07-14 00:58:00,69.5,62.0,29.99,ENE,74,0.0,1.0,77,0.00,,CLR,0.00,VWS V14.01,2013-07-14 05:58:00,
2013-07-14 00:59:00,69.3,61.8,29.99,East,90,0.0,1.0,77,0.00,,CLR,0.00,VWS V14.01,2013-07-14 05:59:00,
2013-07-14 01:00:00,69.3,61.8,29.99,ENE,60,0.0,1.0,77,0.00,,,0.00,VWS V14.01,2013-07-14 06:00:00,
2013-07-14 01:04:00,69.3,61.4,29.99,ESE,115,0.0,1.0,76,0.00,,CLR,0.00,VWS V14.01,2013-07-14 06:04:00,
2013-07-14 01:09:00,69.5,61.6,29.99,ESE,111,0.0,1.0,76,0.00,,CLR,0.00,VWS V14.01,2013-07-14 06:09:00,
2013-07-14 01:10:00,69.5,61.6,29.99,ESE,111,0.0,1.0,76,0.00,,CLR,0.00,VWS V14.01,2013-07-14 06:10:00,
2013-07-14 01:14:00,69.5,61.6,29.99,ESE,102,0.0,1.0,76,0.00,,CLR,0.00,VWS V14.01,2013-07-14 06:14:00,
2013-07-14 01:15:00,69.5,61.6,29.99,East,101,0.0,1.0,76,0.00,,CLR,0.00,VWS V14.01,2013-07-14 06:15:00,
2013-07-14 01:19:00,69.5,61.2,29.99,East,96,0.0,1.0,75,0.00,,CLR,0.00,VWS V14.01,2013-07-14 06:19:00,
2013-07-14 01:20:00,69.5,61.2,29.99,ESE,112,0.0,1.0,75,0.00,,CLR,0.00,VWS V14.01,2013-07-14 06:20:00,
2013-07-14 01:24:00,69.7,61.4,29.99,East,88,0.0,1.0,75,0.00,,CLR,0.00,VWS V14.01,2013-07-14 06:24:00,
2013-07-14 01:25:00,69.7,61.4,29.99,East,88,0.0,1.0,75,0.00,,CLR,0.00,VWS V14.01,2013-07-14 06:25:00,
2013-07-14 01:26:00,69.7,61.4,29.99,East,88,0.0,1.0,75,0.00,,CLR,0.00,VWS V14.01,2013-07-14 06:26:00,
2013-07-14 01:29:00,69.7,61.4,29.99,ENE,57,0.0,1.0,75,0.00,,CLR,0.00,VWS V14.01,2013-07-14 06:29:00,
2013-07-14 01:30:00,69.7,61.0,29.99,ENE,57,0.0,1.0,74,0.00,,CLR,0.00,VWS V14.01,2013-07-14 06:30:00,
2013-07-14 01:31:00,69.7,61.4,29.99,ENE,57,0.0,0.0,75,0.00,,CLR,0.00,VWS V14.01,2013-07-14 06:31:00,
2013-07-14 01:34:00,69.7,61.4,29.99,East,98,0.0,0.0,75,0.00,,CLR,0.00,VWS V14.01,2013-07-14 06:34:00,
2013-07-14 01:35:00,69.7,61.4,29.99,East,98,0.0,1.0,75,0.00,,CLR,0.00,VWS V14.01,2013-07-14 06:35:00,
2013-07-14 01:36:00,69.7,61.4,29.99,East,98,0.0,1.0,75,0.00,,CLR,0.00,VWS V14.01,2013-07-14 06:36:00,
2013-07-14 01:39:00,69.7,61.4,29.99,East,98,0.0,1.0,75,0.00,,CLR,0.00,VWS V14.01,2013-07-14 06:39:00,
2013-07-14 01:40:00,69.7,61.4,29.99,East,98,0.0,1.0,75,0.00,,CLR,0.00,VWS V14.01,2013-07-14 06:40:00,
2013-07-14 01:42:00,69.7,61.4,29.99,East,98,0.0,1.0,75,0.00,,CLR,0.00,VWS V14.01,2013-07-14 06:42:00,
2013-07-14 01:44:00,69.7,61.4,29.99,East,98,0.0,1.0,75,0.00,,CLR,0.00,VWS V14.01,2013-07-14 06:44:00,
2013-07-14 01:45:00,69.5,61.2,29.99,East,98,0.0,1.0,75,0.00,,CLR,0.00,VWS V14.01,2013-07-14 06:45:00,
2013-07-14 01:47:00,69.5,61.2,29.99,East,98,0.0,1.0,75,0.00,,CLR,0.00,VWS V14.01,2013-07-14 06:47:00,
2013-07-14 01:50:00,69.5,61.2,29.99,East,98,0.0,1.0,75,0.00,,CLR,0.00,VWS V14.01,2013-07-14 06:50:00,
2013-07-14 01:52:00,69.5,61.2,29.99,East,98,0.0,1.0,75,0.00,,CLR,0.00,VWS V14.01,2013-07-14 06:52:00,
2013-07-14 01:55:00,69.5,61.2,29.99,East,98,0.0,1.0,75,0.00,,CLR,0.00,VWS V14.01,2013-07-14 06:55:00,
2013-07-14 01:57:00,69.3,61.0,29.99,East,98,0.0,1.0,75,0.00,,CLR,0.00,VWS V14.01,2013-07-14 06:57:00,
2013-07-14 02:00:00,69.3,61.0,30.00,East,98,0.0,1.0,75,0.00,,CLR,0.00,VWS V14.01,2013-07-14 07:00:00,
2013-07-14 02:02:00,69.2,61.3,30.00,East,98,0.0,1.0,76,0.00,,CLR,0.00,VWS V14.01,2013-07-14 07:02:00,
2013-07-14 02:05:00,69.2,61.3,30.00,East,98,0.0,1.0,76,0.00,,CLR,0.00,VWS V14.01,2013-07-14 07:05:00,
2013-07-14 02:06:00,69.2,61.3,30.00,East,98,0.0,1.0,76,0.00,,CLR,0.00,VWS V14.01,2013-07-14 07:06:00,
2013-07-14 02:08:00,69.0,61.1,30.00,East,98,0.0,1.0,76,0.00,,CLR,0.00,VWS V14.01,2013-07-14 07:08:00,
2013-07-14 02:10:00,69.0,61.5,30.00,East,98,0.0,1.0,77,0.00,,CLR,0.00,VWS V14.01,2013-07-14 07:10:00,
2013-07-14 02:11:00,69.0,61.5,30.00,East,98,0.0,1.0,77,0.00,,CLR,0.00,VWS V14.01,2013-07-14 07:11:00,
2013-07-14 02:13:00,68.8,61.3,30.00,East,98,0.0,1.0,77,0.00,,CLR,0.00,VWS V14.01,2013-07-14 07:13:00,
2013-07-14 02:15:00,68.8,61.3,30.00,East,98,0.0,1.0,77,0.00,,CLR,0.00,VWS V14.01,2013-07-14 07:15:00,
2013-07-14 02:16:00,68.8,61.3,30.00,East,98,0.0,1.0,77,0.00,,CLR,0.00,VWS V14.01,2013-07-14 07:16:00,
2013-07-14 02:18:00,68.7,61.2,30.00,East,98,0.0,1.0,77,0.00,,CLR,0.00,VWS V14.01,2013-07-14 07:18:00,
2013-07-14 02:20:00,68.7,61.2,30.00,East,98,0.0,1.0,77,0.00,,CLR,0.00,VWS V14.01,2013-07-14 07:20:00,
2013-07-14 02:21:00,68.7,61.2,30.00,East,98,0.0,1.0,77,0.00,,CLR,0.00,VWS V14.01,2013-07-14 07:21:00,
2013-07-14 02:23:00,68.5,61.0,30.00,East,98,0.0,1.0,77,0.00,,CLR,0.00,VWS V14.01,2013-07-14 07:23:00,
2013-07-14 02:25:00,68.5,61.4,30.00,East,98,0.0,1.0,78,0.00,,CLR,0.00,VWS V14.01,2013-07-14 07:25:00,
2013-07-14 02:26:00,68.5,61.4,30.00,East,98,0.0,1.0,78,0.00,,CLR,0.00,VWS V14.01,2013-07-14 07:26:00,
2013-07-14 02:27:00,68.3,61.5,30.00,East,98,0.0,1.0,79,0.00,,CLR,0.00,VWS V14.01,2013-07-14 07:27:00,
2013-07-14 02:28:00,68.3,61.5,30.00,East,98,0.0,1.0,79,0.00,,CLR,0.00,VWS V14.01,2013-07-14 07:28:00,
2013-07-14 02:30:00,68.2,61.5,30.00,East,98,0.0,0.0,79,0.00,,CLR,0.00,VWS V14.01,2013-07-14 07:30:00,
2013-07-14 02:31:00,68.2,61.5,30.00,East,98,0.0,0.0,79,0.00,,CLR,0.00,VWS V14.01,2013-07-14 07:31:00,
2013-07-14 02:32:00,68.0,61.2,30.00,East,98,0.0,0.0,79,0.00,,CLR,0.00,VWS V14.01,2013-07-14 07:32:00,
2013-07-14 02:33:00,67.8,61.4,30.00,East,98,0.0,0.0,80,0.00,,CLR,0.00,VWS V14.01,2013-07-14 07:33:00,
2013-07-14 02:36:00,67.8,61.4,30.00,East,98,0.0,0.0,80,0.00,,CLR,0.00,VWS V14.01,2013-07-14 07:36:00,
2013-07-14 02:37:00,67.8,61.4,30.00,East,98,0.0,0.0,80,0.00,,CLR,0.00,VWS V14.01,2013-07-14 07:37:00,
2013-07-14 02:39:00,67.7,61.3,30.00,East,98,0.0,0.0,80,0.00,,CLR,0.00,VWS V14.01,2013-07-14 07:39:00,
2013-07-14 02:41:00,67.5,61.1,30.00,East,98,0.0,0.0,80,0.00,,CLR,0.00,VWS V14.01,2013-07-14 07:41:00,
2013-07-14 02:42:00,67.5,61.5,30.00,East,98,0.0,0.0,81,0.00,,CLR,0.00,VWS V14.01,2013-07-14 07:42:00,
2013-07-14 02:44:00,67.5,61.5,30.00,East,98,0.0,0.0,81,0.00,,CLR,0.00,VWS V14.01,2013-07-14 07:44:00,
2013-07-14 02:46:00,67.5,61.5,30.00,East,98,0.0,0.0,81,0.00,,CLR,0.00,VWS V14.01,2013-07-14 07:46:00,
2013-07-14 02:47:00,67.5,61.5,30.00,East,98,0.0,0.0,81,0.00,,CLR,0.00,VWS V14.01,2013-07-14 07:47:00,
2013-07-14 02:49:00,67.5,61.5,30.00,East,98,0.0,0.0,81,0.00,,CLR,0.00,VWS V14.01,2013-07-14 07:49:00,
2013-07-14 02:51:00,67.5,61.5,30.00,East,98,0.0,0.0,81,0.00,,CLR,0.00,VWS V14.01,2013-07-14 07:51:00,
2013-07-14 02:52:00,67.5,61.5,30.00,East,98,0.0,0.0,81,0.00,,CLR,0.00,VWS V14.01,2013-07-14 07:52:00,
2013-07-14 02:54:00,67.3,61.3,30.00,East,98,0.0,0.0,81,0.00,,CLR,0.00,VWS V14.01,2013-07-14 07:54:00,
2013-07-14 02:56:00,67.3,61.3,30.00,East,98,0.0,0.0,81,0.00,,CLR,0.00,VWS V14.01,2013-07-14 07:56:00,
2013-07-14 02:57:00,67.3,61.3,30.00,East,98,0.0,0.0,81,0.00,,CLR,0.00,VWS V14.01,2013-07-14 07:57:00,
2013-07-14 02:58:00,67.3,61.3,30.00,East,98,0.0,0.0,81,0.00,,CLR,0.00,VWS V14.01,2013-07-14 07:58:00,
2013-07-14 02:59:00,67.3,61.3,30.00,East,98,0.0,0.0,81,0.00,,CLR,0.00,VWS V14.01,2013-07-14 07:59:00,
2013-07-14 03:00:00,67.3,61.3,30.00,East,98,0.0,0.0,81,0.00,,,0.00,VWS V14.01,2013-07-14 08:00:00,
2013-07-14 03:01:00,67.3,61.3,30.00,East,98,0.0,0.0,81,0.00,,CLR,0.00,VWS V14.01,2013-07-14 08:01:00,
2013-07-14 03:02:00,67.3,61.3,30.00,East,98,0.0,0.0,81,0.00,,CLR,0.00,VWS V14.01,2013-07-14 08:02:00,
2013-07-14 03:03:00,67.3,61.3,30.00,East,98,0.0,0.0,81,0.00,,CLR,0.00,VWS V14.01,2013-07-14 08:03:00,
2013-07-14 03:04:00,67.3,61.3,30.00,East,98,0.0,0.0,81,0.00,,CLR,0.00,VWS V14.01,2013-07-14 08:04:00,
2013-07-14 03:06:00,67.2,61.2,30.00,East,98,0.0,0.0,81,0.00,,CLR,0.00,VWS V14.01,2013-07-14 08:06:00,
2013-07-14 03:07:00,67.2,61.2,30.00,East,98,0.0,0.0,81,0.00,,CLR,0.00,VWS V14.01,2013-07-14 08:07:00,
2013-07-14 03:08:00,67.2,61.2,30.00,East,98,0.0,0.0,81,0.00,,CLR,0.00,VWS V14.01,2013-07-14 08:08:00,
2013-07-14 03:09:00,67.2,61.2,30.00,East,98,0.0,0.0,81,0.00,,CLR,0.00,VWS V14.01,2013-07-14 08:09:00,
2013-07-14 03:11:00,67.0,61.0,30.00,East,98,0.0,0.0,81,0.00,,CLR,0.00,VWS V14.01,2013-07-14 08:11:00,
2013-07-14 03:13:00,67.0,61.0,30.00,East,98,0.0,0.0,81,0.00,,CLR,0.00,VWS V14.01,2013-07-14 08:13:00,
2013-07-14 03:14:00,67.0,61.3,30.00,East,98,0.0,0.0,82,0.00,,CLR,0.00,VWS V14.01,2013-07-14 08:14:00,
2013-07-14 03:16:00,66.8,61.1,30.01,East,98,0.0,0.0,82,0.00,,CLR,0.00,VWS V14.01,2013-07-14 08:16:00,
2013-07-14 03:17:00,66.8,61.1,30.01,East,98,0.0,0.0,82,0.00,,CLR,0.00,VWS V14.01,2013-07-14 08:17:00,
2013-07-14 03:18:00,66.8,61.1,30.01,East,98,0.0,0.0,82,0.00,,CLR,0.00,VWS V14.01,2013-07-14 08:18:00,
2013-07-14 03:19:00,66.8,61.1,30.01,East,98,0.0,0.0,82,0.00,,CLR,0.00,VWS V14.01,2013-07-14 08:19:00,
2013-07-14 03:21:00,66.7,61.0,30.01,East,98,0.0,0.0,82,0.00,,CLR,0.00,VWS V14.01,2013-07-14 08:21:00,
2013-07-14 03:22:00,66.7,61.0,30.01,East,98,0.0,0.0,82,0.00,,CLR,0.00,VWS V14.01,2013-07-14 08:22:00,
2013-07-14 03:24:00,66.7,61.4,30.01,East,98,0.0,0.0,83,0.00,,CLR,0.00,VWS V14.01,2013-07-14 08:24:00,
2013-07-14 03:27:00,66.5,61.2,30.01,East,98,0.0,0.0,83,0.00,,CLR,0.00,VWS V14.01,2013-07-14 08:27:00,
2013-07-14 03:29:00,66.5,61.2,30.01,East,98,0.0,0.0,83,0.00,,CLR,0.00,VWS V14.01,2013-07-14 08:29:00,
2013-07-14 03:30:00,66.5,61.2,30.01,East,98,0.0,0.0,83,0.00,,,0.00,VWS V14.01,2013-07-14 08:30:00,
2013-07-14 03:32:00,66.5,61.2,30.01,East,98,0.0,0.0,83,0.00,,CLR,0.00,VWS V14.01,2013-07-14 08:32:00,
2013-07-14 03:33:00,66.5,61.2,30.01,East,98,0.0,0.0,83,0.00,,CLR,0.00,VWS V14.01,2013-07-14 08:33:00,
2013-07-14 03:34:00,66.5,61.5,30.01,East,98,0.0,0.0,84,0.00,,CLR,0.00,VWS V14.01,2013-07-14 08:34:00,
2013-07-14 03:35:00,66.5,61.5,30.01,East,98,0.0,0.0,84,0.00,,CLR,0.00,VWS V14.01,2013-07-14 08:35:00,
2013-07-14 03:37:00,66.3,61.3,30.01,East,98,0.0,0.0,84,0.00,,CLR,0.00,VWS V14.01,2013-07-14 08:37:00,
2013-07-14 03:38:00,66.3,61.3,30.01,East,98,0.0,0.0,84,0.00,,CLR,0.00,VWS V14.01,2013-07-14 08:38:00,
2013-07-14 03:39:00,66.3,61.3,30.01,East,98,0.0,0.0,84,0.00,,CLR,0.00,VWS V14.01,2013-07-14 08:39:00,
2013-07-14 03:40:00,66.3,61.3,30.01,East,98,0.0,0.0,84,0.00,,CLR,0.00,VWS V14.01,2013-07-14 08:40:00,
2013-07-14 03:43:00,66.3,61.3,30.01,East,98,0.0,0.0,84,0.00,,CLR,0.00,VWS V14.01,2013-07-14 08:43:00,
2013-07-14 03:44:00,66.3,61.3,30.01,East,98,0.0,0.0,84,0.00,,CLR,0.00,VWS V14.01,2013-07-14 08:44:00,
2013-07-14 03:45:00,66.3,61.3,30.01,East,98,0.0,0.0,84,0.00,,CLR,0.00,VWS V14.01,2013-07-14 08:45:00,
2013-07-14 03:48:00,66.2,61.2,30.01,East,98,0.0,0.0,84,0.00,,CLR,0.00,VWS V14.01,2013-07-14 08:48:00,
2013-07-14 03:49:00,66.2,61.2,30.01,East,98,0.0,0.0,84,0.00,,CLR,0.00,VWS V14.01,2013-07-14 08:49:00,
2013-07-14 03:50:00,66.2,61.2,30.01,East,98,0.0,0.0,84,0.00,,CLR,0.00,VWS V14.01,2013-07-14 08:50:00,
2013-07-14 03:53:00,66.2,61.2,30.01,East,98,0.0,0.0,84,0.00,,CLR,0.00,VWS V14.01,2013-07-14 08:53:00,
2013-07-14 03:55:00,66.0,61.0,30.01,East,98,0.0,0.0,84,0.00,,CLR,0.00,VWS V14.01,2013-07-14 08:55:00,
2013-07-14 03:58:00,66.0,61.4,30.01,East,98,0.0,0.0,85,0.00,,CLR,0.00,VWS V14.01,2013-07-14 08:58:00,
2013-07-14 03:59:00,66.0,61.4,30.01,East,98,0.0,0.0,85,0.00,,CLR,0.00,VWS V14.01,2013-07-14 08:59:00,
2013-07-14 04:00:00,65.9,61.3,30.01,East,98,0.0,0.0,85,0.00,,CLR,0.00,VWS V14.01,2013-07-14 09:00:00,
2013-07-14 04:01:00,65.9,61.3,30.01,East,98,0.0,0.0,85,0.00,,CLR,0.00,VWS V14.01,2013-07-14 09:01:00,
2013-07-14 04:04:00,65.9,61.3,30.01,East,98,0.0,0.0,85,0.00,,CLR,0.00,VWS V14.01,2013-07-14 09:04:00,
2013-07-14 04:05:00,65.9,61.3,30.01,East,98,0.0,0.0,85,0.00,,CLR,0.00,VWS V14.01,2013-07-14 09:05:00,
2013-07-14 04:06:00,65.9,61.3,30.01,East,98,0.0,0.0,85,0.00,,CLR,0.00,VWS V14.01,2013-07-14 09:06:00,
2013-07-14 04:09:00,65.9,61.3,30.01,East,98,0.0,0.0,85,0.00,,CLR,0.00,VWS V14.01,2013-07-14 09:09:00,
2013-07-14 04:10:00,65.7,61.4,30.01,East,98,0.0,0.0,86,0.00,,CLR,0.00,VWS V14.01,2013-07-14 09:10:00,
2013-07-14 04:11:00,65.7,61.4,30.01,East,98,0.0,0.0,86,0.00,,CLR,0.00,VWS V14.01,2013-07-14 09:11:00,
2013-07-14 04:12:00,65.7,61.4,30.01,East,98,0.0,0.0,86,0.00,,CLR,0.00,VWS V14.01,2013-07-14 09:12:00,
2013-07-14 04:14:00,65.7,61.4,30.01,East,98,0.0,0.0,86,0.00,,CLR,0.00,VWS V14.01,2013-07-14 09:14:00,
2013-07-14 04:15:00,65.7,61.4,30.01,East,98,0.0,0.0,86,0.00,,CLR,0.00,VWS V14.01,2013-07-14 09:15:00,
2013-07-14 04:16:00,65.7,61.4,30.01,East,98,0.0,0.0,86,0.00,,CLR,0.00,VWS V14.01,2013-07-14 09:16:00,
2013-07-14 04:17:00,65.7,61.4,30.01,East,98,0.0,0.0,86,0.00,,CLR,0.00,VWS V14.01,2013-07-14 09:17:00,
2013-07-14 04:19:00,65.7,61.4,30.01,East,98,0.0,0.0,86,0.00,,CLR,0.00,VWS V14.01,2013-07-14 09:19:00,
2013-07-14 04:20:00,65.5,61.2,30.01,East,98,0.0,0.0,86,0.00,,CLR,0.00,VWS V14.01,2013-07-14 09:20:00,
2013-07-14 04:21:00,65.5,61.2,30.01,East,98,0.0,0.0,86,0.00,,CLR,0.00,VWS V14.01,2013-07-14 09:21:00,
2013-07-14 04:22:00,65.5,61.2,30.01,East,98,0.0,0.0,86,0.00,,CLR,0.00,VWS V14.01,2013-07-14 09:22:00,
2013-07-14 04:24:00,65.5,61.2,30.01,East,98,0.0,0.0,86,0.00,,CLR,0.00,VWS V14.01,2013-07-14 09:24:00,
2013-07-14 04:26:00,65.5,61.2,30.01,East,98,0.0,0.0,86,0.00,,CLR,0.00,VWS V14.01,2013-07-14 09:26:00,
2013-07-14 04:27:00,65.5,61.2,30.01,East,98,0.0,0.0,86,0.00,,CLR,0.00,VWS V14.01,2013-07-14 09:27:00,
2013-07-14 04:29:00,65.5,61.2,30.01,East,98,0.0,0.0,86,0.00,,CLR,0.00,VWS V14.01,2013-07-14 09:29:00,
2013-07-14 04:30:00,65.4,61.1,30.02,East,98,0.0,0.0,86,0.00,,,0.00,VWS V14.01,2013-07-14 09:30:00,
2013-07-14 04:31:00,65.4,61.1,30.02,East,98,0.0,0.0,86,0.00,,CLR,0.00,VWS V14.01,2013-07-14 09:31:00,
2013-07-14 04:33:00,65.4,61.1,30.02,East,98,0.0,0.0,86,0.00,,CLR,0.00,VWS V14.01,2013-07-14 09:33:00,
2013-07-14 04:34:00,65.4,61.1,30.02,East,98,0.0,0.0,86,0.00,,CLR,0.00,VWS V14.01,2013-07-14 09:34:00,
2013-07-14 04:36:00,65.4,61.1,30.02,East,98,0.0,0.0,86,0.00,,CLR,0.00,VWS V14.01,2013-07-14 09:36:00,
2013-07-14 04:37:00,65.4,61.1,30.02,East,98,0.0,0.0,86,0.00,,CLR,0.00,VWS V14.01,2013-07-14 09:37:00,
2013-07-14 04:38:00,65.4,61.4,30.02,East,98,0.0,0.0,87,0.00,,CLR,0.00,VWS V14.01,2013-07-14 09:38:00,
2013-07-14 04:39:00,65.4,61.4,30.02,East,98,0.0,0.0,87,0.00,,CLR,0.00,VWS V14.01,2013-07-14 09:39:00,
2013-07-14 04:40:00,65.4,61.1,30.02,East,98,0.0,0.0,86,0.00,,CLR,0.00,VWS V14.01,2013-07-14 09:40:00,
2013-07-14 04:42:00,65.2,60.9,30.02,East,98,0.0,0.0,86,0.00,,CLR,0.00,VWS V14.01,2013-07-14 09:42:00,
2013-07-14 04:43:00,65.2,61.2,30.02,East,98,0.0,0.0,87,0.00,,CLR,0.00,VWS V14.01,2013-07-14 09:43:00,
2013-07-14 04:44:00,65.2,61.2,30.02,East,98,0.0,0.0,87,0.00,,CLR,0.00,VWS V14.01,2013-07-14 09:44:00,
2013-07-14 04:45:00,65.2,61.2,30.03,East,98,0.0,0.0,87,0.00,,CLR,0.00,VWS V14.01,2013-07-14 09:45:00,
2013-07-14 04:47:00,65.1,61.1,30.03,East,98,0.0,0.0,87,0.00,,CLR,0.00,VWS V14.01,2013-07-14 09:47:00,
2013-07-14 04:48:00,64.9,60.9,30.03,East,98,0.0,0.0,87,0.00,,CLR,0.00,VWS V14.01,2013-07-14 09:48:00,
2013-07-14 04:49:00,64.9,60.9,30.03,East,98,0.0,0.0,87,0.00,,CLR,0.00,VWS V14.01,2013-07-14 09:49:00,
2013-07-14 04:50:00,64.9,60.9,30.03,East,98,0.0,0.0,87,0.00,,CLR,0.00,VWS V14.01,2013-07-14 09:50:00,
2013-07-14 04:52:00,64.7,61.1,30.03,East,98,0.0,0.0,88,0.00,,CLR,0.00,VWS V14.01,2013-07-14 09:52:00,
2013-07-14 04:53:00,64.6,61.0,30.03,East,98,0.0,0.0,88,0.00,,CLR,0.00,VWS V14.01,2013-07-14 09:53:00,
2013-07-14 04:54:00,64.6,61.0,30.03,East,98,0.0,0.0,88,0.00,,CLR,0.00,VWS V14.01,2013-07-14 09:54:00,
2013-07-14 04:55:00,64.4,60.8,30.03,East,98,0.0,0.0,88,0.00,,CLR,0.00,VWS V14.01,2013-07-14 09:55:00,
2013-07-14 04:57:00,64.4,60.8,30.03,East,98,0.0,0.0,88,0.00,,CLR,0.00,VWS V14.01,2013-07-14 09:57:00,
2013-07-14 04:59:00,64.2,60.6,30.03,East,98,0.0,0.0,88,0.00,,CLR,0.00,VWS V14.01,2013-07-14 09:59:00,
2013-07-14 05:00:00,64.2,60.6,30.03,East,98,0.0,0.0,88,0.00,,CLR,0.00,VWS V14.01,2013-07-14 10:00:00,
2013-07-14 05:02:00,64.1,60.5,30.03,East,98,0.0,0.0,88,0.00,,CLR,0.00,VWS V14.01,2013-07-14 10:02:00,
2013-07-14 05:04:00,63.9,60.6,30.03,East,98,0.0,0.0,89,0.00,,CLR,0.00,VWS V14.01,2013-07-14 10:04:00,
2013-07-14 05:05:00,63.9,60.6,30.03,East,98,0.0,0.0,89,0.00,,CLR,0.00,VWS V14.01,2013-07-14 10:05:00,
2013-07-14 05:07:00,63.9,60.6,30.03,East,98,0.0,0.0,89,0.00,,CLR,0.00,VWS V14.01,2013-07-14 10:07:00,
2013-07-14 05:09:00,63.8,60.5,30.03,East,98,0.0,0.0,89,0.00,,CLR,0.00,VWS V14.01,2013-07-14 10:09:00,
2013-07-14 05:10:00,63.8,60.5,30.03,East,98,0.0,0.0,89,0.00,,CLR,0.00,VWS V14.01,2013-07-14 10:10:00,
2013-07-14 05:12:00,63.8,60.5,30.03,East,98,0.0,0.0,89,0.00,,CLR,0.00,VWS V14.01,2013-07-14 10:12:00,
2013-07-14 05:13:00,63.8,60.8,30.03,East,98,0.0,0.0,90,0.00,,CLR,0.00,VWS V14.01,2013-07-14 10:13:00,
2013-07-14 05:14:00,63.8,60.8,30.03,East,98,0.0,0.0,90,0.00,,CLR,0.00,VWS V14.01,2013-07-14 10:14:00,
2013-07-14 05:15:00,63.6,60.6,30.03,East,98,0.0,0.0,90,0.00,,CLR,0.00,VWS V14.01,2013-07-14 10:15:00,
2013-07-14 05:17:00,63.6,60.6,30.03,East,98,0.0,0.0,90,0.00,,CLR,0.00,VWS V14.01,2013-07-14 10:17:00,
2013-07-14 05:18:00,63.6,60.6,30.03,East,98,0.0,0.0,90,0.00,,CLR,0.00,VWS V14.01,2013-07-14 10:18:00,
2013-07-14 05:19:00,63.6,60.6,30.03,East,98,0.0,0.0,90,0.00,,CLR,0.00,VWS V14.01,2013-07-14 10:19:00,
2013-07-14 05:20:00,63.4,60.4,30.03,East,98,0.0,0.0,90,0.00,,CLR,0.00,VWS V14.01,2013-07-14 10:20:00,
2013-07-14 05:22:00,63.4,60.4,30.03,East,98,0.0,0.0,90,0.00,,CLR,0.00,VWS V14.01,2013-07-14 10:22:00,
2013-07-14 05:23:00,63.4,60.4,30.03,East,98,0.0,0.0,90,0.00,,CLR,0.00,VWS V14.01,2013-07-14 10:23:00,
2013-07-14 05:24:00,63.4,60.4,30.03,East,98,0.0,0.0,90,0.00,,CLR,0.00,VWS V14.01,2013-07-14 10:24:00,
2013-07-14 05:25:00,63.4,60.7,30.03,East,98,0.0,0.0,91,0.00,,CLR,0.00,VWS V14.01,2013-07-14 10:25:00,
2013-07-14 05:26:00,63.4,60.7,30.03,East,98,0.0,0.0,91,0.00,,CLR,0.00,VWS V14.01,2013-07-14 10:26:00,
2013-07-14 05:28:00,63.4,60.7,30.03,East,98,0.0,0.0,91,0.00,,CLR,0.00,VWS V14.01,2013-07-14 10:28:00,
2013-07-14 05:29:00,63.4,60.7,30.03,East,98,0.0,0.0,91,0.00,,CLR,0.00,VWS V14.01,2013-07-14 10:29:00,
2013-07-14 05:30:00,63.4,60.7,30.03,East,98,0.0,0.0,91,0.00,,CLR,0.00,VWS V14.01,2013-07-14 10:30:00,
2013-07-14 05:31:00,63.4,60.7,30.03,East,98,0.0,0.0,91,0.00,,CLR,0.00,VWS V14.01,2013-07-14 10:31:00,
2013-07-14 05:33:00,63.4,60.7,30.03,East,98,0.0,0.0,91,0.00,,CLR,0.00,VWS V14.01,2013-07-14 10:33:00,
2013-07-14 05:34:00,63.4,60.7,30.03,East,98,0.0,0.0,91,0.00,,CLR,0.00,VWS V14.01,2013-07-14 10:34:00,
2013-07-14 05:35:00,63.4,60.7,30.03,East,98,0.0,0.0,91,0.00,,CLR,0.00,VWS V14.01,2013-07-14 10:35:00,
2013-07-14 05:36:00,63.4,60.7,30.03,East,98,0.0,0.0,91,0.00,,CLR,0.00,VWS V14.01,2013-07-14 10:36:00,
2013-07-14 05:38:00,63.3,60.6,30.03,East,98,0.0,0.0,91,0.00,,CLR,0.00,VWS V14.01,2013-07-14 10:38:00,
2013-07-14 05:39:00,63.3,60.6,30.03,East,98,0.0,0.0,91,0.00,,CLR,0.00,VWS V14.01,2013-07-14 10:39:00,
2013-07-14 05:40:00,63.3,60.6,30.03,East,98,0.0,0.0,91,0.00,,CLR,0.00,VWS V14.01,2013-07-14 10:40:00,
2013-07-14 05:41:00,63.4,60.7,30.03,East,98,0.0,0.0,91,0.00,,CLR,0.00,VWS V14.01,2013-07-14 10:41:00,
2013-07-14 05:43:00,63.4,60.7,30.03,East,98,0.0,0.0,91,0.00,,CLR,0.00,VWS V14.01,2013-07-14 10:43:00,
2013-07-14 05:45:00,63.4,60.7,30.04,East,98,0.0,0.0,91,0.00,,CLR,0.00,VWS V14.01,2013-07-14 10:45:00,
2013-07-14 05:46:00,63.4,60.7,30.04,East,98,0.0,0.0,91,0.00,,CLR,0.00,VWS V14.01,2013-07-14 10:46:00,
2013-07-14 05:48:00,63.3,60.6,30.04,East,98,0.0,0.0,91,0.00,,CLR,0.00,VWS V14.01,2013-07-14 10:48:00,
2013-07-14 05:51:00,63.3,60.6,30.04,East,98,0.0,0.0,91,0.00,,CLR,0.00,VWS V14.01,2013-07-14 10:51:00,
2013-07-14 05:53:00,63.3,60.6,30.04,East,98,0.0,0.0,91,0.00,,CLR,0.00,VWS V14.01,2013-07-14 10:53:00,
2013-07-14 05:56:00,63.3,60.6,30.04,East,98,0.0,0.0,91,0.00,,CLR,0.00,VWS V14.01,2013-07-14 10:56:00,
2013-07-14 05:57:00,63.3,60.6,30.04,East,98,0.0,0.0,91,0.00,,CLR,0.00,VWS V14.01,2013-07-14 10:57:00,
2013-07-14 05:58:00,63.3,60.9,30.04,East,98,0.0,0.0,92,0.00,,CLR,0.00,VWS V14.01,2013-07-14 10:58:00,
2013-07-14 05:59:00,63.3,60.9,30.04,East,98,0.0,0.0,92,0.00,,CLR,0.00,VWS V14.01,2013-07-14 10:59:00,
2013-07-14 06:00:00,63.4,61.0,30.03,East,98,0.0,0.0,92,0.00,,,0.00,VWS V14.01,2013-07-14 11:00:00,
2013-07-14 06:01:00,63.4,61.0,30.03,East,98,0.0,0.0,92,0.00,,CLR,0.00,VWS V14.01,2013-07-14 11:01:00,
2013-07-14 06:02:00,63.4,61.0,30.03,East,98,0.0,0.0,92,0.00,,CLR,0.00,VWS V14.01,2013-07-14 11:02:00,
2013-07-14 06:03:00,63.6,61.2,30.03,East,98,0.0,0.0,92,0.00,,CLR,0.00,VWS V14.01,2013-07-14 11:03:00,
2013-07-14 06:04:00,63.6,61.2,30.03,East,98,0.0,0.0,92,0.00,,CLR,0.00,VWS V14.01,2013-07-14 11:04:00,
2013-07-14 06:06:00,63.6,61.2,30.03,East,98,0.0,0.0,92,0.00,,CLR,0.00,VWS V14.01,2013-07-14 11:06:00,
2013-07-14 06:08:00,63.6,61.2,30.03,East,98,0.0,0.0,92,0.00,,CLR,0.00,VWS V14.01,2013-07-14 11:08:00,
2013-07-14 06:09:00,63.6,61.2,30.03,East,98,0.0,0.0,92,0.00,,CLR,0.00,VWS V14.01,2013-07-14 11:09:00,
2013-07-14 06:11:00,63.8,61.4,30.03,East,98,0.0,0.0,92,0.00,,CLR,0.00,VWS V14.01,2013-07-14 11:11:00,
2013-07-14 06:13:00,63.8,61.4,30.03,East,98,0.0,0.0,92,0.00,,CLR,0.00,VWS V14.01,2013-07-14 11:13:00,
2013-07-14 06:14:00,63.8,61.4,30.03,East,98,0.0,0.0,92,0.00,,CLR,0.00,VWS V14.01,2013-07-14 11:14:00,
2013-07-14 06:15:00,63.8,61.4,30.04,East,98,0.0,0.0,92,0.00,,CLR,0.00,VWS V14.01,2013-07-14 11:15:00,
2013-07-14 06:16:00,63.8,61.4,30.04,East,98,0.0,0.0,92,0.00,,CLR,0.00,VWS V14.01,2013-07-14 11:16:00,
2013-07-14 06:18:00,63.9,61.5,30.04,East,98,0.0,1.0,92,0.00,,CLR,0.00,VWS V14.01,2013-07-14 11:18:00,
2013-07-14 06:19:00,63.9,61.5,30.04,East,98,0.0,1.0,92,0.00,,CLR,0.00,VWS V14.01,2013-07-14 11:19:00,
2013-07-14 06:20:00,63.9,61.5,30.04,East,98,0.0,1.0,92,0.00,,CLR,0.00,VWS V14.01,2013-07-14 11:20:00,
2013-07-14 06:21:00,63.9,61.5,30.04,East,98,0.0,1.0,92,0.00,,CLR,0.00,VWS V14.01,2013-07-14 11:21:00,
2013-07-14 06:23:00,64.1,61.7,30.04,East,98,0.0,1.0,92,0.00,,CLR,0.00,VWS V14.01,2013-07-14 11:23:00,
2013-07-14 06:24:00,64.1,61.7,30.04,East,98,0.0,1.0,92,0.00,,CLR,0.00,VWS V14.01,2013-07-14 11:24:00,
2013-07-14 06:25:00,64.1,61.7,30.04,East,101,0.0,1.0,92,0.00,,CLR,0.00,VWS V14.01,2013-07-14 11:25:00,
2013-07-14 06:26:00,64.1,61.7,30.04,East,101,0.0,1.0,92,0.00,,CLR,0.00,VWS V14.01,2013-07-14 11:26:00,
2013-07-14 06:28:00,64.2,61.8,30.04,East,101,0.0,1.0,92,0.00,,CLR,0.00,VWS V14.01,2013-07-14 11:28:00,
2013-07-14 06:29:00,64.2,61.8,30.04,ENE,78,0.0,1.0,92,0.00,,CLR,0.00,VWS V14.01,2013-07-14 11:29:00,
2013-07-14 06:30:00,64.2,61.5,30.05,East,80,0.0,1.0,91,0.00,,CLR,0.00,VWS V14.01,2013-07-14 11:30:00,
2013-07-14 06:31:00,64.4,61.7,30.05,East,81,0.0,0.0,91,0.00,,CLR,0.00,VWS V14.01,2013-07-14 11:31:00,
2013-07-14 06:32:00,64.4,61.7,30.05,East,82,0.0,0.0,91,0.00,,CLR,0.00,VWS V14.01,2013-07-14 11:32:00,
2013-07-14 06:33:00,64.4,61.7,30.05,ESE,119,0.0,1.0,91,0.00,,CLR,0.00,VWS V14.01,2013-07-14 11:33:00,
2013-07-14 06:34:00,64.6,61.9,30.05,ESE,119,0.0,1.0,91,0.00,,CLR,0.00,VWS V14.01,2013-07-14 11:34:00,
2013-07-14 06:35:00,64.6,61.9,30.05,ESE,119,0.0,1.0,91,0.00,,CLR,0.00,VWS V14.01,2013-07-14 11:35:00,
2013-07-14 06:37:00,64.6,61.9,30.05,ESE,119,0.0,1.0,91,0.00,,CLR,0.00,VWS V14.01,2013-07-14 11:37:00,
2013-07-14 06:38:00,64.7,62.0,30.05,ESE,119,0.0,1.0,91,0.00,,CLR,0.00,VWS V14.01,2013-07-14 11:38:00,
2013-07-14 06:40:00,64.7,62.0,30.05,ESE,119,0.0,1.0,91,0.00,,CLR,0.00,VWS V14.01,2013-07-14 11:40:00,
2013-07-14 06:42:00,64.9,62.2,30.05,ESE,119,0.0,1.0,91,0.00,,CLR,0.00,VWS V14.01,2013-07-14 11:42:00,
2013-07-14 06:44:00,65.1,62.4,30.05,East,86,0.0,1.0,91,0.00,,CLR,0.00,VWS V14.01,2013-07-14 11:44:00,
2013-07-14 06:45:00,65.1,62.1,30.05,East,86,0.0,1.0,90,0.00,,CLR,0.00,VWS V14.01,2013-07-14 11:45:00,
2013-07-14 06:47:00,65.2,62.2,30.05,East,86,0.0,1.0,90,0.00,,CLR,0.00,VWS V14.01,2013-07-14 11:47:00,
2013-07-14 06:49:00,65.4,62.4,30.05,ESE,106,0.0,1.0,90,0.00,,CLR,0.00,VWS V14.01,2013-07-14 11:49:00,
2013-07-14 06:50:00,65.4,62.4,30.05,ENE,78,0.0,1.0,90,0.00,,CLR,0.00,VWS V14.01,2013-07-14 11:50:00,
2013-07-14 06:51:00,65.5,62.5,30.05,ESE,111,0.0,1.0,90,0.00,,CLR,0.00,VWS V14.01,2013-07-14 11:51:00,
2013-07-14 06:52:00,65.5,62.5,30.05,ESE,111,0.0,1.0,90,0.00,,CLR,0.00,VWS V14.01,2013-07-14 11:52:00,
2013-07-14 06:54:00,65.7,62.4,30.05,East,84,2.0,2.0,89,0.00,,CLR,0.00,VWS V14.01,2013-07-14 11:54:00,
2013-07-14 06:55:00,65.9,62.6,30.05,East,84,0.0,2.0,89,0.00,,CLR,0.00,VWS V14.01,2013-07-14 11:55:00,
2013-07-14 06:56:00,65.9,62.6,30.05,East,84,0.0,2.0,89,0.00,,CLR,0.00,VWS V14.01,2013-07-14 11:56:00,
2013-07-14 06:57:00,66.0,62.7,30.05,ESE,102,0.0,2.0,89,0.00,,CLR,0.00,VWS V14.01,2013-07-14 11:57:00,
2013-07-14 06:59:00,66.2,62.5,30.05,ENE,74,0.0,2.0,88,0.00,,CLR,0.00,VWS V14.01,2013-07-14 11:59:00,
2013-07-14 07:00:00,66.2,62.5,30.05,ENE,76,0.0,2.0,88,0.00,,CLR,0.00,VWS V14.01,2013-07-14 12:00:00,
2013-07-14 07:01:00,66.3,62.6,30.05,ESE,103,0.0,1.0,88,0.00,,CLR,0.00,VWS V14.01,2013-07-14 12:01:00,
2013-07-14 07:02:00,66.5,62.8,30.05,ESE,103,0.0,1.0,88,0.00,,CLR,0.00,VWS V14.01,2013-07-14 12:02:00,
2013-07-14 07:04:00,66.7,63.0,30.05,East,93,0.0,1.0,88,0.00,,CLR,0.00,VWS V14.01,2013-07-14 12:04:00,
2013-07-14 07:05:00,66.7,63.0,30.05,ESE,113,0.0,1.0,88,0.00,,CLR,0.00,VWS V14.01,2013-07-14 12:05:00,
2013-07-14 07:06:00,66.8,63.1,30.05,ESE,113,0.0,1.0,88,0.00,,CLR,0.00,VWS V14.01,2013-07-14 12:06:00,
2013-07-14 07:07:00,66.8,62.8,30.05,ESE,113,0.0,1.0,87,0.00,,CLR,0.00,VWS V14.01,2013-07-14 12:07:00,
2013-07-14 07:09:00,67.0,63.0,30.05,ESE,111,0.0,1.0,87,0.00,,CLR,0.00,VWS V14.01,2013-07-14 12:09:00,
2013-07-14 07:11:00,67.2,63.2,30.05,ESE,110,0.0,1.0,87,0.00,,CLR,0.00,VWS V14.01,2013-07-14 12:11:00,
2013-07-14 07:12:00,67.3,63.3,30.05,ESE,113,0.0,1.0,87,0.00,,CLR,0.00,VWS V14.01,2013-07-14 12:12:00,
2013-07-14 07:14:00,67.5,63.5,30.05,ESE,113,0.0,1.0,87,0.00,,CLR,0.00,VWS V14.01,2013-07-14 12:14:00,
2013-07-14 07:16:00,67.7,63.4,30.05,ESE,114,0.0,1.0,86,0.00,,CLR,0.00,VWS V14.01,2013-07-14 12:16:00,
2013-07-14 07:17:00,67.8,63.5,30.05,ESE,113,4.0,6.0,86,0.00,,CLR,0.00,VWS V14.01,2013-07-14 12:17:00,
2013-07-14 07:18:00,67.8,63.5,30.05,ESE,123,3.0,6.0,86,0.00,,CLR,0.00,VWS V14.01,2013-07-14 12:18:00,
2013-07-14 07:19:00,68.0,63.3,30.05,ESE,122,0.0,6.0,85,0.00,,CLR,0.00,VWS V14.01,2013-07-14 12:19:00,
2013-07-14 07:21:00,68.2,63.5,30.05,ESE,122,0.0,6.0,85,0.00,,CLR,0.00,VWS V14.01,2013-07-14 12:21:00,
2013-07-14 07:22:00,68.3,63.6,30.05,ESE,122,0.0,6.0,85,0.00,,CLR,0.00,VWS V14.01,2013-07-14 12:22:00,
2013-07-14 07:23:00,68.3,63.6,30.05,ESE,122,0.0,6.0,85,0.00,,CLR,0.00,VWS V14.01,2013-07-14 12:23:00,
2013-07-14 07:25:00,68.5,63.8,30.05,SE,124,0.0,6.0,85,0.00,,CLR,0.00,VWS V14.01,2013-07-14 12:25:00,
2013-07-14 07:26:00,68.8,63.8,30.05,SE,124,0.0,6.0,84,0.00,,CLR,0.00,VWS V14.01,2013-07-14 12:26:00,
2013-07-14 07:28:00,69.0,64.0,30.05,ESE,105,0.0,6.0,84,0.00,,CLR,0.00,VWS V14.01,2013-07-14 12:28:00,
2013-07-14 07:30:00,69.3,64.3,30.04,ESE,105,1.0,6.0,84,0.00,,CLR,0.00,VWS V14.01,2013-07-14 12:30:00,
2013-07-14 07:31:00,69.5,64.1,30.04,SE,133,0.0,1.0,83,0.00,,CLR,0.00,VWS V14.01,2013-07-14 12:31:00,
2013-07-14 07:32:00,69.5,64.1,30.04,SE,133,0.0,1.0,83,0.00,,CLR,0.00,VWS V14.01,2013-07-14 12:32:00,
2013-07-14 07:33:00,69.5,64.1,30.04,SE,128,0.0,2.0,83,0.00,,CLR,0.00,VWS V14.01,2013-07-14 12:33:00,
2013-07-14 07:35:00,69.7,64.0,30.04,SSE,167,0.0,2.0,82,0.00,,CLR,0.00,VWS V14.01,2013-07-14 12:35:00,
2013-07-14 07:36:00,70.0,64.3,30.04,ESE,104,2.0,4.0,82,0.00,,CLR,0.00,VWS V14.01,2013-07-14 12:36:00,
2013-07-14 07:37:00,70.0,64.3,30.04,ESE,103,7.0,7.0,82,0.00,,CLR,0.00,VWS V14.01,2013-07-14 12:37:00,
2013-07-14 07:38:00,70.0,64.3,30.04,SE,132,1.0,7.0,82,0.00,,CLR,0.00,VWS V14.01,2013-07-14 12:38:00,
2013-07-14 07:40:00,70.2,64.4,30.04,ESE,102,0.0,7.0,82,0.00,,CLR,0.00,VWS V14.01,2013-07-14 12:40:00,
2013-07-14 07:42:00,70.5,64.8,30.04,East,93,0.0,7.0,82,0.00,,CLR,0.00,VWS V14.01,2013-07-14 12:42:00,
2013-07-14 07:43:00,70.5,64.4,30.04,ENE,73,0.0,7.0,81,0.00,,CLR,0.00,VWS V14.01,2013-07-14 12:43:00,
2013-07-14 07:45:00,70.7,64.6,30.04,ENE,74,2.0,7.0,81,0.00,,CLR,0.00,VWS V14.01,2013-07-14 12:45:00,
2013-07-14 07:47:00,70.8,64.7,30.04,East,79,0.0,7.0,81,0.00,,CLR,0.00,VWS V14.01,2013-07-14 12:47:00,
2013-07-14 07:48:00,70.8,64.7,30.04,East,95,0.0,7.0,81,0.00,,CLR,0.00,VWS V14.01,2013-07-14 12:48:00,
2013-07-14 07:49:00,70.8,64.7,30.04,East,95,0.0,7.0,81,0.00,,CLR,0.00,VWS V14.01,2013-07-14 12:49:00,
2013-07-14 07:50:00,71.0,64.9,30.04,SE,130,0.0,7.0,81,0.00,,CLR,0.00,VWS V14.01,2013-07-14 12:50:00,
2013-07-14 07:52:00,71.0,64.5,30.04,SE,134,2.0,7.0,80,0.00,,CLR,0.00,VWS V14.01,2013-07-14 12:52:00,
2013-07-14 07:53:00,71.0,64.5,30.04,SE,124,1.0,7.0,80,0.00,,CLR,0.00,VWS V14.01,2013-07-14 12:53:00,
2013-07-14 07:54:00,71.2,64.7,30.04,East,82,0.0,7.0,80,0.00,,CLR,0.00,VWS V14.01,2013-07-14 12:54:00,
2013-07-14 07:55:00,71.2,64.7,30.04,ESE,107,4.0,7.0,80,0.00,,CLR,0.00,VWS V14.01,2013-07-14 12:55:00,
2013-07-14 07:57:00,71.2,64.4,30.04,SE,127,0.0,7.0,79,0.00,,CLR,0.00,VWS V14.01,2013-07-14 12:57:00,
2013-07-14 07:58:00,71.4,64.9,30.04,SE,127,0.0,7.0,80,0.00,,CLR,0.00,VWS V14.01,2013-07-14 12:58:00,
2013-07-14 07:59:00,71.4,64.9,30.04,ESE,115,0.0,7.0,80,0.00,,CLR,0.00,VWS V14.01,2013-07-14 12:59:00,
2013-07-14 08:00:00,71.4,64.6,30.05,ENE,63,2.0,7.0,79,0.00,,CLR,0.00,VWS V14.01,2013-07-14 13:00:00,
2013-07-14 08:02:00,71.4,64.6,30.05,East,81,0.0,2.0,79,0.00,,CLR,0.00,VWS V14.01,2013-07-14 13:02:00,
2013-07-14 08:03:00,71.4,64.6,30.05,East,81,0.0,2.0,79,0.00,,CLR,0.00,VWS V14.01,2013-07-14 13:03:00,
2013-07-14 08:04:00,71.5,64.7,30.05,East,87,0.0,2.0,79,0.00,,CLR,0.00,VWS V14.01,2013-07-14 13:04:00,
2013-07-14 08:06:00,71.5,64.7,30.05,ENE,66,0.0,5.0,79,0.00,,CLR,0.00,VWS V14.01,2013-07-14 13:06:00,
2013-07-14 08:07:00,71.7,64.8,30.05,ESE,105,1.0,5.0,79,0.00,,CLR,0.00,VWS V14.01,2013-07-14 13:07:00,
2013-07-14 08:08:00,71.7,64.8,30.05,SE,144,0.0,6.0,79,0.00,,CLR,0.00,VWS V14.01,2013-07-14 13:08:00,
2013-07-14 08:09:00,71.9,65.0,30.05,SE,131,0.0,6.0,79,0.00,,CLR,0.00,VWS V14.01,2013-07-14 13:09:00,
2013-07-14 08:11:00,71.9,65.0,30.05,ESE,119,5.0,7.0,79,0.00,,CLR,0.00,VWS V14.01,2013-07-14 13:11:00,
2013-07-14 08:13:00,71.7,64.5,30.05,SE,128,5.0,7.0,78,0.00,,CLR,0.00,VWS V14.01,2013-07-14 13:13:00,
2013-07-14 08:14:00,71.7,64.5,30.05,ENE,78,4.0,7.0,78,0.00,,CLR,0.00,VWS V14.01,2013-07-14 13:14:00,
2013-07-14 08:16:00,71.7,64.8,30.06,East,83,0.0,7.0,79,0.00,,CLR,0.00,VWS V14.01,2013-07-14 13:16:00,
2013-07-14 08:18:00,71.9,64.7,30.06,SE,126,0.0,7.0,78,0.00,,CLR,0.00,VWS V14.01,2013-07-14 13:18:00,
2013-07-14 08:19:00,72.0,64.8,30.06,SSE,154,4.0,9.0,78,0.00,,CLR,0.00,VWS V14.01,2013-07-14 13:19:00,
2013-07-14 08:21:00,72.0,64.8,30.06,ENE,62,0.0,9.0,78,0.00,,CLR,0.00,VWS V14.01,2013-07-14 13:21:00,
2013-07-14 08:23:00,72.2,65.0,30.06,East,100,0.0,9.0,78,0.00,,CLR,0.00,VWS V14.01,2013-07-14 13:23:00,
2013-07-14 08:24:00,72.4,65.2,30.06,SE,130,5.0,9.0,78,0.00,,CLR,0.00,VWS V14.01,2013-07-14 13:24:00,
2013-07-14 08:26:00,72.6,65.0,30.06,SE,138,0.0,9.0,77,0.00,,CLR,0.00,VWS V14.01,2013-07-14 13:26:00,
2013-07-14 08:28:00,72.6,65.0,30.06,East,86,0.0,9.0,77,0.00,,CLR,0.00,VWS V14.01,2013-07-14 13:28:00,
2013-07-14 08:30:00,72.6,65.3,30.05,ENE,78,0.0,9.0,78,0.00,,CLR,0.00,VWS V14.01,2013-07-14 13:30:00,
2013-07-14 08:31:00,72.7,65.1,30.05,SE,143,0.0,0.0,77,0.00,,CLR,0.00,VWS V14.01,2013-07-14 13:31:00,
2013-07-14 08:33:00,72.7,65.1,30.05,East,90,3.0,6.0,77,0.00,,CLR,0.00,VWS V14.01,2013-07-14 13:33:00,
2013-07-14 08:34:00,72.7,65.1,30.05,ESE,121,0.0,6.0,77,0.00,,CLR,0.00,VWS V14.01,2013-07-14 13:34:00,
2013-07-14 08:35:00,72.7,65.1,30.05,ESE,117,3.0,6.0,77,0.00,,CLR,0.00,VWS V14.01,2013-07-14 13:35:00,
2013-07-14 08:36:00,72.7,65.1,30.05,SE,132,6.0,10.0,77,0.00,,CLR,0.00,VWS V14.01,2013-07-14 13:36:00,
2013-07-14 08:38:00,72.7,65.1,30.05,SE,140,5.0,10.0,77,0.00,,CLR,0.00,VWS V14.01,2013-07-14 13:38:00,
2013-07-14 08:39:00,72.6,65.0,30.05,East,94,0.0,10.0,77,0.00,,CLR,0.00,VWS V14.01,2013-07-14 13:39:00,
2013-07-14 08:40:00,72.7,65.1,30.05,ESE,119,0.0,10.0,77,0.00,,CLR,0.00,VWS V14.01,2013-07-14 13:40:00,
2013-07-14 08:41:00,72.7,65.1,30.05,SE,124,0.0,10.0,77,0.00,,CLR,0.00,VWS V14.01,2013-07-14 13:41:00,
2013-07-14 08:43:00,73.1,65.8,30.05,SSE,163,0.0,10.0,78,0.00,,CLR,0.00,VWS V14.01,2013-07-14 13:43:00,
2013-07-14 08:44:00,73.1,65.8,30.05,East,80,0.0,10.0,78,0.00,,CLR,0.00,VWS V14.01,2013-07-14 13:44:00,
2013-07-14 08:45:00,73.2,65.6,30.06,SE,138,0.0,10.0,77,0.00,,CLR,0.00,VWS V14.01,2013-07-14 13:45:00,
2013-07-14 08:46:00,73.2,65.6,30.06,ESE,110,3.0,10.0,77,0.00,,CLR,0.00,VWS V14.01,2013-07-14 13:46:00,
2013-07-14 08:48:00,73.4,65.8,30.06,SSE,147,5.0,10.0,77,0.00,,CLR,0.00,VWS V14.01,2013-07-14 13:48:00,
2013-07-14 08:49:00,73.4,65.8,30.06,SSE,167,5.0,10.0,77,0.00,,CLR,0.00,VWS V14.01,2013-07-14 13:49:00,
2013-07-14 08:51:00,73.6,65.9,30.06,ESE,109,2.0,10.0,77,0.00,,CLR,0.00,VWS V14.01,2013-07-14 13:51:00,
2013-07-14 08:52:00,73.6,65.6,30.06,ESE,114,0.0,10.0,76,0.00,,CLR,0.00,VWS V14.01,2013-07-14 13:52:00,
2013-07-14 08:54:00,73.6,65.9,30.06,South,177,3.0,10.0,77,0.00,,CLR,0.00,VWS V14.01,2013-07-14 13:54:00,
2013-07-14 08:56:00,73.6,65.9,30.06,ESE,123,0.0,10.0,77,0.00,,CLR,0.00,VWS V14.01,2013-07-14 13:56:00,
2013-07-14 08:57:00,73.8,65.8,30.06,SSW,209,0.0,10.0,76,0.00,,CLR,0.00,VWS V14.01,2013-07-14 13:57:00,
2013-07-14 08:59:00,73.8,65.8,30.06,East,92,0.0,10.0,76,0.00,,CLR,0.00,VWS V14.01,2013-07-14 13:59:00,
2013-07-14 09:00:00,73.9,65.9,30.06,ENE,64,0.0,10.0,76,0.00,,,0.00,VWS V14.01,2013-07-14 14:00:00,
2013-07-14 09:01:00,73.9,65.9,30.06,SE,144,4.0,4.0,76,0.00,,CLR,0.00,VWS V14.01,2013-07-14 14:01:00,
2013-07-14 09:02:00,73.9,65.9,30.06,ESE,123,0.0,4.0,76,0.00,,CLR,0.00,VWS V14.01,2013-07-14 14:02:00,
2013-07-14 09:04:00,73.9,65.9,30.06,East,88,0.0,5.0,76,0.00,,CLR,0.00,VWS V14.01,2013-07-14 14:04:00,
2013-07-14 09:06:00,74.1,66.1,30.06,SSE,150,0.0,5.0,76,0.00,,CLR,0.00,VWS V14.01,2013-07-14 14:06:00,
2013-07-14 09:07:00,74.1,66.1,30.06,South,180,0.0,5.0,76,0.00,,CLR,0.00,VWS V14.01,2013-07-14 14:07:00,
2013-07-14 09:09:00,74.3,66.2,30.06,SSW,202,4.0,5.0,76,0.00,,CLR,0.00,VWS V14.01,2013-07-14 14:09:00,
2013-07-14 09:12:00,74.5,66.4,30.06,SSW,195,0.0,5.0,76,0.00,,CLR,0.00,VWS V14.01,2013-07-14 14:12:00,
2013-07-14 09:14:00,74.5,66.4,30.06,ESE,114,0.0,5.0,76,0.00,,CLR,0.00,VWS V14.01,2013-07-14 14:14:00,
2013-07-14 09:17:00,74.8,66.3,30.05,East,92,0.0,5.0,75,0.00,,CLR,0.00,VWS V14.01,2013-07-14 14:17:00,
2013-07-14 09:18:00,75.0,66.6,30.05,SSW,208,2.0,5.0,75,0.00,,CLR,0.00,VWS V14.01,2013-07-14 14:18:00,
2013-07-14 09:19:00,75.0,66.2,30.05,SE,130,0.0,5.0,74,0.00,,CLR,0.00,VWS V14.01,2013-07-14 14:19:00,
2013-07-14 09:22:00,75.3,66.8,30.05,ENE,68,0.0,5.0,75,0.00,,CLR,0.00,VWS V14.01,2013-07-14 14:22:00,
2013-07-14 09:23:00,75.5,67.0,30.05,SE,132,0.0,5.0,75,0.00,,CLR,0.00,VWS V14.01,2013-07-14 14:23:00,
2013-07-14 09:24:00,75.5,66.6,30.05,East,90,0.0,5.0,74,0.00,,CLR,0.00,VWS V14.01,2013-07-14 14:24:00,
2013-07-14 09:28:00,75.9,66.6,30.05,South,170,0.0,5.0,73,0.00,,CLR,0.00,VWS V14.01,2013-07-14 14:28:00,
2013-07-14 09:29:00,75.9,66.6,30.05,SW,224,0.0,5.0,73,0.00,,CLR,0.00,VWS V14.01,2013-07-14 14:29:00,
2013-07-14 09:30:00,75.9,66.6,30.05,SSW,195,0.0,5.0,73,0.00,,CLR,0.00,VWS V14.01,2013-07-14 14:30:00,
2013-07-14 09:33:00,76.0,67.1,30.05,SSW,193,0.0,0.0,74,0.00,,CLR,0.00,VWS V14.01,2013-07-14 14:33:00,
2013-07-14 09:34:00,76.2,67.3,30.05,South,190,3.0,5.0,74,0.00,,CLR,0.00,VWS V14.01,2013-07-14 14:34:00,
2013-07-14 09:35:00,76.2,67.3,30.05,SSW,195,2.0,5.0,74,0.00,,CLR,0.00,VWS V14.01,2013-07-14 14:35:00,
2013-07-14 09:38:00,76.2,66.5,30.05,South,178,0.0,6.0,72,0.00,,CLR,0.00,VWS V14.01,2013-07-14 14:38:00,
2013-07-14 09:39:00,76.4,66.7,30.05,SE,132,0.0,6.0,72,0.00,,CLR,0.00,VWS V14.01,2013-07-14 14:39:00,
2013-07-14 09:40:00,76.4,66.7,30.05,SE,133,0.0,6.0,72,0.00,,CLR,0.00,VWS V14.01,2013-07-14 14:40:00,
2013-07-14 09:43:00,76.6,66.9,30.05,ESE,121,0.0,6.0,72,0.00,,CLR,0.00,VWS V14.01,2013-07-14 14:43:00,
2013-07-14 09:45:00,76.7,66.6,30.06,SE,129,0.0,6.0,71,0.00,,CLR,0.00,VWS V14.01,2013-07-14 14:45:00,
2013-07-14 09:48:00,76.9,66.8,30.06,SE,140,0.0,6.0,71,0.00,,CLR,0.00,VWS V14.01,2013-07-14 14:48:00,
2013-07-14 09:49:00,76.9,66.8,30.06,ESE,107,0.0,6.0,71,0.00,,CLR,0.00,VWS V14.01,2013-07-14 14:49:00,
2013-07-14 09:50:00,77.1,67.0,30.06,East,96,0.0,6.0,71,0.00,,CLR,0.00,VWS V14.01,2013-07-14 14:50:00,
2013-07-14 09:53:00,77.3,66.8,30.06,East,80,3.0,6.0,70,0.00,,CLR,0.00,VWS V14.01,2013-07-14 14:53:00,
2013-07-14 09:54:00,77.1,66.2,30.06,East,81,0.0,6.0,69,0.00,,CLR,0.00,VWS V14.01,2013-07-14 14:54:00,
2013-07-14 09:55:00,77.3,66.3,30.06,SSW,200,0.0,6.0,69,0.00,,CLR,0.00,VWS V14.01,2013-07-14 14:55:00,
2013-07-14 09:58:00,77.5,66.9,30.06,SSW,193,0.0,6.0,70,0.00,,CLR,0.00,VWS V14.01,2013-07-14 14:58:00,
2013-07-14 09:59:00,77.6,67.5,30.06,SE,133,0.0,6.0,71,0.00,,CLR,0.00,VWS V14.01,2013-07-14 14:59:00,
2013-07-14 10:00:00,77.6,66.6,30.06,ESE,107,0.0,6.0,69,0.00,,CLR,0.00,VWS V14.01,2013-07-14 15:00:00,
2013-07-14 10:01:00,77.8,66.8,30.06,ESE,109,0.0,0.0,69,0.00,,CLR,0.00,VWS V14.01,2013-07-14 15:01:00,
2013-07-14 10:03:00,78.2,67.6,30.06,SSW,196,2.0,2.0,70,0.00,,CLR,0.00,VWS V14.01,2013-07-14 15:03:00,
2013-07-14 10:04:00,78.2,67.2,30.06,SSW,194,0.0,2.0,69,0.00,,CLR,0.00,VWS V14.01,2013-07-14 15:04:00,
2013-07-14 10:05:00,78.2,67.2,30.06,SSW,202,0.0,2.0,69,0.00,,CLR,0.00,VWS V14.01,2013-07-14 15:05:00,
2013-07-14 10:06:00,78.2,67.6,30.06,SSW,201,0.0,2.0,70,0.00,,CLR,0.00,VWS V14.01,2013-07-14 15:06:00,
2013-07-14 10:08:00,78.5,67.5,30.06,SE,134,0.0,2.0,69,0.00,,CLR,0.00,VWS V14.01,2013-07-14 15:08:00,
2013-07-14 10:09:00,78.7,67.3,30.06,South,172,0.0,2.0,68,0.00,,CLR,0.00,VWS V14.01,2013-07-14 15:09:00,
2013-07-14 10:10:00,78.7,67.7,30.06,SE,130,0.0,2.0,69,0.00,,CLR,0.00,VWS V14.01,2013-07-14 15:10:00,
2013-07-14 10:11:00,78.7,67.3,30.06,East,84,0.0,2.0,68,0.00,,CLR,0.00,VWS V14.01,2013-07-14 15:11:00,
2013-07-14 10:13:00,78.9,67.4,30.06,ENE,63,0.0,2.0,68,0.00,,CLR,0.00,VWS V14.01,2013-07-14 15:13:00,
2013-07-14 10:14:00,79.1,68.1,30.06,East,91,0.0,2.0,69,0.00,,CLR,0.00,VWS V14.01,2013-07-14 15:14:00,
2013-07-14 10:16:00,79.1,67.6,30.06,SE,139,0.0,2.0,68,0.00,,CLR,0.00,VWS V14.01,2013-07-14 15:16:00,
2013-07-14 10:18:00,79.1,67.6,30.06,South,179,0.0,2.0,68,0.00,,CLR,0.00,VWS V14.01,2013-07-14 15:18:00,
2013-07-14 10:20:00,79.1,67.6,30.06,South,179,0.0,2.0,68,0.00,,CLR,0.00,VWS V14.01,2013-07-14 15:20:00,
2013-07-14 10:21:00,79.1,67.6,30.06,South,171,0.0,2.0,68,0.00,,CLR,0.00,VWS V14.01,2013-07-14 15:21:00,
2013-07-14 10:23:00,79.1,67.6,30.06,ESE,119,0.0,2.0,68,0.00,,CLR,0.00,VWS V14.01,2013-07-14 15:23:00,
2013-07-14 10:25:00,79.3,68.3,30.06,ESE,121,0.0,2.0,69,0.00,,CLR,0.00,VWS V14.01,2013-07-14 15:25:00,
2013-07-14 10:26:00,79.3,67.8,30.06,South,174,0.0,2.0,68,0.00,,CLR,0.00,VWS V14.01,2013-07-14 15:26:00,
2013-07-14 10:28:00,79.3,67.0,30.06,South,174,0.0,2.0,66,0.00,,CLR,0.00,VWS V14.01,2013-07-14 15:28:00,
2013-07-14 10:30:00,79.5,67.6,30.06,SE,130,0.0,2.0,67,0.00,,CLR,0.00,VWS V14.01,2013-07-14 15:30:00,
2013-07-14 10:31:00,79.5,67.6,30.06,SE,135,0.0,0.0,67,0.00,,CLR,0.00,VWS V14.01,2013-07-14 15:31:00,
2013-07-14 10:34:00,79.7,68.2,30.06,SSW,194,0.0,1.0,68,0.00,,CLR,0.00,VWS V14.01,2013-07-14 15:34:00,
2013-07-14 10:35:00,79.8,67.9,30.06,SSW,195,2.0,4.0,67,0.00,,CLR,0.00,VWS V14.01,2013-07-14 15:35:00,
2013-07-14 10:36:00,79.8,67.9,30.06,South,174,0.0,4.0,67,0.00,,CLR,0.00,VWS V14.01,2013-07-14 15:36:00,
2013-07-14 10:39:00,79.8,67.4,30.06,SSE,159,0.0,4.0,66,0.00,,CLR,0.00,VWS V14.01,2013-07-14 15:39:00,
2013-07-14 10:40:00,80.0,67.2,30.06,South,170,0.0,4.0,65,0.00,,CLR,0.00,VWS V14.01,2013-07-14 15:40:00,
2013-07-14 10:41:00,80.0,67.2,30.06,South,180,1.0,4.0,65,0.00,,CLR,0.00,VWS V14.01,2013-07-14 15:41:00,
2013-07-14 10:42:00,80.0,67.6,30.06,South,180,0.0,4.0,66,0.00,,CLR,0.00,VWS V14.01,2013-07-14 15:42:00,
2013-07-14 10:44:00,80.2,68.3,30.06,South,181,0.0,4.0,67,0.00,,CLR,0.00,VWS V14.01,2013-07-14 15:44:00,
2013-07-14 10:45:00,80.2,67.4,30.06,South,182,0.0,4.0,65,0.00,,CLR,0.00,VWS V14.01,2013-07-14 15:45:00,
2013-07-14 10:46:00,80.2,67.4,30.06,South,178,0.0,4.0,65,0.00,,CLR,0.00,VWS V14.01,2013-07-14 15:46:00,
2013-07-14 10:47:00,80.2,67.8,30.06,South,178,0.0,4.0,66,0.00,,CLR,0.00,VWS V14.01,2013-07-14 15:47:00,
2013-07-14 10:49:00,80.4,68.0,30.06,East,93,0.0,4.0,66,0.00,,CLR,0.00,VWS V14.01,2013-07-14 15:49:00,
2013-07-14 10:50:00,80.4,67.6,30.06,East,91,0.0,4.0,65,0.00,,CLR,0.00,VWS V14.01,2013-07-14 15:50:00,
2013-07-14 10:52:00,80.4,68.0,30.06,East,91,0.0,4.0,66,0.00,,CLR,0.00,VWS V14.01,2013-07-14 15:52:00,
2013-07-14 10:54:00,80.8,67.9,30.06,ENE,76,1.0,4.0,65,0.00,,CLR,0.00,VWS V14.01,2013-07-14 15:54:00,
2013-07-14 10:56:00,80.8,67.5,30.06,East,83,0.0,4.0,64,0.00,,CLR,0.00,VWS V14.01,2013-07-14 15:56:00,
2013-07-14 10:57:00,80.8,67.5,30.06,East,92,3.0,4.0,64,0.00,,CLR,0.00,VWS V14.01,2013-07-14 15:57:00,
2013-07-14 11:00:00,80.8,67.9,30.07,ENE,73,0.0,4.0,65,0.00,,CLR,0.00,VWS V14.01,2013-07-14 16:00:00,
2013-07-14 11:01:00,80.8,67.9,30.07,East,94,0.0,0.0,65,0.00,,CLR,0.00,VWS V14.01,2013-07-14 16:01:00,
2013-07-14 11:02:00,80.8,67.9,30.07,South,189,0.0,1.0,65,0.00,,CLR,0.00,VWS V14.01,2013-07-14 16:02:00,
2013-07-14 11:05:00,80.8,69.3,30.07,South,189,0.0,1.0,68,0.00,,CLR,0.00,VWS V14.01,2013-07-14 16:05:00,
2013-07-14 11:06:00,80.8,68.4,30.07,South,190,0.0,1.0,66,0.00,,CLR,0.00,VWS V14.01,2013-07-14 16:06:00,
2013-07-14 11:07:00,81.0,68.1,30.07,East,80,0.0,4.0,65,0.00,,CLR,0.00,VWS V14.01,2013-07-14 16:07:00,
2013-07-14 11:10:00,81.3,68.0,30.07,ENE,69,4.0,5.0,64,0.00,,CLR,0.00,VWS V14.01,2013-07-14 16:10:00,
2013-07-14 11:11:00,81.3,68.0,30.07,East,83,0.0,5.0,64,0.00,,CLR,0.00,VWS V14.01,2013-07-14 16:11:00,
2013-07-14 11:12:00,81.3,68.0,30.07,ESE,107,0.0,5.0,64,0.00,,CLR,0.00,VWS V14.01,2013-07-14 16:12:00,
2013-07-14 11:13:00,81.3,68.0,30.07,South,184,0.0,5.0,64,0.00,,CLR,0.00,VWS V14.01,2013-07-14 16:13:00,
2013-07-14 11:15:00,81.5,67.7,30.07,ESE,119,0.0,5.0,63,0.00,,CLR,0.00,VWS V14.01,2013-07-14 16:15:00,
2013-07-14 11:16:00,81.5,68.2,30.07,SE,134,0.0,5.0,64,0.00,,CLR,0.00,VWS V14.01,2013-07-14 16:16:00,
2013-07-14 11:17:00,81.3,67.1,30.07,East,99,0.0,5.0,62,0.00,,CLR,0.00,VWS V14.01,2013-07-14 16:17:00,
2013-07-14 11:18:00,81.3,67.1,30.07,ESE,108,0.0,5.0,62,0.00,,CLR,0.00,VWS V14.01,2013-07-14 16:18:00,
2013-07-14 11:20:00,81.5,67.2,30.07,South,179,0.0,5.0,62,0.00,,CLR,0.00,VWS V14.01,2013-07-14 16:20:00,
2013-07-14 11:21:00,81.5,67.7,30.07,South,179,0.0,5.0,63,0.00,,CLR,0.00,VWS V14.01,2013-07-14 16:21:00,
2013-07-14 11:23:00,81.5,68.2,30.07,North,5,0.0,5.0,64,0.00,,CLR,0.00,VWS V14.01,2013-07-14 16:23:00,
2013-07-14 11:26:00,81.7,67.4,30.07,East,81,0.0,12.0,62,0.00,,CLR,0.00,VWS V14.01,2013-07-14 16:26:00,
2013-07-14 11:28:00,81.7,66.9,30.07,ESE,115,3.0,12.0,61,0.00,,CLR,0.00,VWS V14.01,2013-07-14 16:28:00,
2013-07-14 11:30:00,81.5,67.2,30.07,WSW,255,0.0,12.0,62,0.00,,,0.00,VWS V14.01,2013-07-14 16:30:00,
2013-07-14 11:31:00,81.5,67.2,30.07,NNW,344,0.0,0.0,62,0.00,,CLR,0.00,VWS V14.01,2013-07-14 16:31:00,
2013-07-14 11:32:00,81.5,67.2,30.07,North,360,0.0,1.0,62,0.00,,CLR,0.00,VWS V14.01,2013-07-14 16:32:00,
2013-07-14 11:33:00,81.5,67.2,30.07,ESE,113,0.0,2.0,62,0.00,,CLR,0.00,VWS V14.01,2013-07-14 16:33:00,
2013-07-14 11:36:00,81.7,66.5,30.07,ESE,119,2.0,2.0,60,0.00,,CLR,0.00,VWS V14.01,2013-07-14 16:36:00,
2013-07-14 11:37:00,81.9,66.7,30.07,SSW,206,3.0,3.0,60,0.00,,CLR,0.00,VWS V14.01,2013-07-14 16:37:00,
2013-07-14 11:38:00,81.9,66.2,30.07,SSW,196,0.0,3.0,59,0.00,,CLR,0.00,VWS V14.01,2013-07-14 16:38:00,
2013-07-14 11:41:00,82.1,66.8,30.07,SE,134,0.0,3.0,60,0.00,,CLR,0.00,VWS V14.01,2013-07-14 16:41:00,
2013-07-14 11:42:00,82.1,66.8,30.07,South,185,0.0,3.0,60,0.00,,CLR,0.00,VWS V14.01,2013-07-14 16:42:00,
2013-07-14 11:43:00,82.1,66.8,30.07,SE,138,0.0,3.0,60,0.00,,CLR,0.00,VWS V14.01,2013-07-14 16:43:00,
2013-07-14 11:44:00,82.1,65.9,30.07,SSE,161,0.0,3.0,58,0.00,,CLR,0.00,VWS V14.01,2013-07-14 16:44:00,
2013-07-14 11:47:00,81.9,65.7,30.06,SSW,192,0.0,3.0,58,0.00,,CLR,0.00,VWS V14.01,2013-07-14 16:47:00,
2013-07-14 11:48:00,81.9,65.7,30.06,ESE,107,0.0,3.0,58,0.00,,CLR,0.00,VWS V14.01,2013-07-14 16:48:00,
2013-07-14 11:49:00,81.9,66.7,30.06,SE,142,0.0,3.0,60,0.00,,CLR,0.00,VWS V14.01,2013-07-14 16:49:00,
2013-07-14 11:52:00,81.9,67.1,30.06,East,88,3.0,5.0,61,0.00,,CLR,0.00,VWS V14.01,2013-07-14 16:52:00,
2013-07-14 11:53:00,82.1,67.3,30.06,ENE,68,0.0,5.0,61,0.00,,CLR,0.00,VWS V14.01,2013-07-14 16:53:00,
2013-07-14 11:57:00,82.1,67.8,30.06,SE,124,0.0,5.0,62,0.00,,CLR,0.00,VWS V14.01,2013-07-14 16:57:00,
2013-07-14 11:58:00,82.3,68.5,30.06,SE,137,0.0,5.0,63,0.00,,CLR,0.00,VWS V14.01,2013-07-14 16:58:00,
2013-07-14 11:59:00,82.3,69.4,30.06,East,81,7.0,7.0,65,0.00,,CLR,0.00,VWS V14.01,2013-07-14 16:59:00,
2013-07-14 12:00:00,82.3,66.1,30.06,SE,145,0.0,7.0,58,0.00,,,0.00,VWS V14.01,2013-07-14 17:00:00,
2013-07-14 12:02:00,82.3,67.5,30.06,ENE,69,0.0,0.0,61,0.00,,CLR,0.00,VWS V14.01,2013-07-14 17:02:00,
2013-07-14 12:03:00,82.5,66.7,30.06,SE,126,0.0,0.0,59,0.00,,CLR,0.00,VWS V14.01,2013-07-14 17:03:00,
2013-07-14 12:04:00,82.5,68.2,30.06,SSW,210,0.0,1.0,62,0.00,,CLR,0.00,VWS V14.01,2013-07-14 17:04:00,
2013-07-14 12:07:00,82.5,67.2,30.06,SSW,203,5.0,5.0,60,0.00,,CLR,0.00,VWS V14.01,2013-07-14 17:07:00,
2013-07-14 12:08:00,82.3,67.0,30.06,SSW,195,0.0,6.0,60,0.00,,CLR,0.00,VWS V14.01,2013-07-14 17:08:00,
2013-07-14 12:09:00,82.3,67.0,30.06,SSW,194,0.0,6.0,60,0.00,,CLR,0.00,VWS V14.01,2013-07-14 17:09:00,
2013-07-14 12:12:00,82.5,68.2,30.06,East,86,0.0,6.0,62,0.00,,CLR,0.00,VWS V14.01,2013-07-14 17:12:00,
2013-07-14 12:14:00,82.7,67.9,30.06,East,86,0.0,6.0,61,0.00,,CLR,0.00,VWS V14.01,2013-07-14 17:14:00,
2013-07-14 12:15:00,82.9,68.1,30.06,SE,126,0.0,6.0,61,0.00,,CLR,0.00,VWS V14.01,2013-07-14 17:15:00,
2013-07-14 12:17:00,83.5,68.2,30.06,SE,132,0.0,6.0,60,0.00,,CLR,0.00,VWS V14.01,2013-07-14 17:17:00,
2013-07-14 12:19:00,83.7,66.9,30.06,SSW,192,0.0,6.0,57,0.00,,CLR,0.00,VWS V14.01,2013-07-14 17:19:00,
2013-07-14 12:20:00,83.7,65.8,30.06,SSW,193,0.0,6.0,55,0.00,,CLR,0.00,VWS V14.01,2013-07-14 17:20:00,
2013-07-14 12:22:00,83.7,67.4,30.06,SSW,195,0.0,6.0,58,0.00,,CLR,0.00,VWS V14.01,2013-07-14 17:22:00,
2013-07-14 12:24:00,83.5,67.7,30.06,ESE,115,0.0,6.0,59,0.00,,CLR,0.00,VWS V14.01,2013-07-14 17:24:00,
2013-07-14 12:25:00,83.5,67.2,30.06,SSW,209,1.0,6.0,58,0.00,,CLR,0.00,VWS V14.01,2013-07-14 17:25:00,
2013-07-14 12:27:00,83.5,66.2,30.06,SE,126,0.0,6.0,56,0.00,,CLR,0.00,VWS V14.01,2013-07-14 17:27:00,
2013-07-14 12:29:00,83.5,66.7,30.06,South,188,0.0,6.0,57,0.00,,CLR,0.00,VWS V14.01,2013-07-14 17:29:00,
2013-07-14 12:30:00,83.5,67.7,30.06,SW,218,0.0,6.0,59,0.00,,CLR,0.00,VWS V14.01,2013-07-14 17:30:00,
2013-07-14 12:33:00,83.5,68.7,30.06,South,185,4.0,4.0,61,0.00,,CLR,0.00,VWS V14.01,2013-07-14 17:33:00,
2013-07-14 12:34:00,83.3,68.5,30.06,South,184,0.0,5.0,61,0.00,,CLR,0.00,VWS V14.01,2013-07-14 17:34:00,
2013-07-14 12:35:00,83.3,66.0,30.06,South,185,0.0,5.0,56,0.00,,CLR,0.00,VWS V14.01,2013-07-14 17:35:00,
2013-07-14 12:38:00,83.3,67.0,30.06,South,179,0.0,5.0,58,0.00,,CLR,0.00,VWS V14.01,2013-07-14 17:38:00,
2013-07-14 12:39:00,83.5,67.2,30.06,ENE,78,2.0,5.0,58,0.00,,CLR,0.00,VWS V14.01,2013-07-14 17:39:00,
2013-07-14 12:40:00,83.5,67.2,30.06,ENE,77,0.0,5.0,58,0.00,,CLR,0.00,VWS V14.01,2013-07-14 17:40:00,
2013-07-14 12:43:00,83.5,67.7,30.06,East,93,0.0,5.0,59,0.00,,CLR,0.00,VWS V14.01,2013-07-14 17:43:00,
2013-07-14 12:44:00,83.7,67.9,30.06,ESE,116,0.0,5.0,59,0.00,,CLR,0.00,VWS V14.01,2013-07-14 17:44:00,
2013-07-14 12:45:00,83.7,67.4,30.06,ESE,113,0.0,5.0,58,0.00,,CLR,0.00,VWS V14.01,2013-07-14 17:45:00,
2013-07-14 12:48:00,84.0,67.7,30.06,East,101,0.0,6.0,58,0.00,,CLR,0.00,VWS V14.01,2013-07-14 17:48:00,
2013-07-14 12:49:00,84.0,67.7,30.06,ENE,61,4.0,6.0,58,0.00,,CLR,0.00,VWS V14.01,2013-07-14 17:49:00,
2013-07-14 12:50:00,84.2,67.3,30.06,NNE,23,2.0,6.0,57,0.00,,CLR,0.00,VWS V14.01,2013-07-14 17:50:00,
2013-07-14 12:51:00,84.2,68.3,30.06,East,80,0.0,6.0,59,0.00,,CLR,0.00,VWS V14.01,2013-07-14 17:51:00,
2013-07-14 12:53:00,84.0,67.7,30.06,ESE,102,0.0,6.0,58,0.00,,CLR,0.00,VWS V14.01,2013-07-14 17:53:00,
2013-07-14 12:54:00,84.0,67.7,30.06,ESE,117,1.0,6.0,58,0.00,,CLR,0.00,VWS V14.01,2013-07-14 17:54:00,
2013-07-14 12:55:00,84.0,67.1,30.06,SE,134,0.0,6.0,57,0.00,,CLR,0.00,VWS V14.01,2013-07-14 17:55:00,
2013-07-14 12:56:00,84.0,67.1,30.06,SE,131,0.0,6.0,57,0.00,,CLR,0.00,VWS V14.01,2013-07-14 17:56:00,
2013-07-14 12:58:00,83.9,67.1,30.06,SE,129,3.0,9.0,57,0.00,,CLR,0.00,VWS V14.01,2013-07-14 17:58:00,
2013-07-14 12:59:00,83.7,66.3,30.06,SSE,162,0.0,9.0,56,0.00,,CLR,0.00,VWS V14.01,2013-07-14 17:59:00,
2013-07-14 13:00:00,83.7,66.9,30.06,SE,136,1.0,9.0,57,0.00,,CLR,0.00,VWS V14.01,2013-07-14 18:00:00,
2013-07-14 13:01:00,83.7,66.9,30.06,SW,215,1.0,1.0,57,0.00,,CLR,0.00,VWS V14.01,2013-07-14 18:01:00,
2013-07-14 13:03:00,83.7,67.4,30.06,East,87,3.0,7.0,58,0.00,,CLR,0.00,VWS V14.01,2013-07-14 18:03:00,
2013-07-14 13:05:00,83.9,67.1,30.06,SW,221,0.0,7.0,57,0.00,,CLR,0.00,VWS V14.01,2013-07-14 18:05:00,
2013-07-14 13:06:00,83.7,67.4,30.06,East,90,0.0,7.0,58,0.00,,CLR,0.00,VWS V14.01,2013-07-14 18:06:00,
2013-07-14 13:09:00,83.9,67.6,30.06,ESE,111,0.0,7.0,58,0.00,,CLR,0.00,VWS V14.01,2013-07-14 18:09:00,
2013-07-14 13:10:00,84.0,67.7,30.06,South,175,0.0,7.0,58,0.00,,CLR,0.00,VWS V14.01,2013-07-14 18:10:00,
2013-07-14 13:11:00,84.2,67.8,30.06,SE,133,0.0,7.0,58,0.00,,CLR,0.00,VWS V14.01,2013-07-14 18:11:00,
2013-07-14 13:14:00,84.4,68.0,30.06,SSE,150,0.0,7.0,58,0.00,,CLR,0.00,VWS V14.01,2013-07-14 18:14:00,
2013-07-14 13:15:00,84.4,68.0,30.06,ESE,115,0.0,7.0,58,0.00,,CLR,0.00,VWS V14.01,2013-07-14 18:15:00,
2013-07-14 13:16:00,84.2,67.3,30.06,ESE,104,0.0,7.0,57,0.00,,CLR,0.00,VWS V14.01,2013-07-14 18:16:00,
2013-07-14 13:19:00,84.2,67.3,30.06,ESE,103,0.0,7.0,57,0.00,,CLR,0.00,VWS V14.01,2013-07-14 18:19:00,
2013-07-14 13:20:00,84.4,69.0,30.06,East,101,0.0,7.0,60,0.00,,CLR,0.00,VWS V14.01,2013-07-14 18:20:00,
2013-07-14 13:21:00,84.4,68.5,30.06,SSE,168,1.0,7.0,59,0.00,,CLR,0.00,VWS V14.01,2013-07-14 18:21:00,
2013-07-14 13:24:00,84.6,68.2,30.06,SSW,202,0.0,7.0,58,0.00,,CLR,0.00,VWS V14.01,2013-07-14 18:24:00,
2013-07-14 13:25:00,84.6,68.2,30.06,South,191,0.0,7.0,58,0.00,,CLR,0.00,VWS V14.01,2013-07-14 18:25:00,
2013-07-14 13:26:00,84.8,68.4,30.06,South,191,0.0,7.0,58,0.00,,CLR,0.00,VWS V14.01,2013-07-14 18:26:00,
2013-07-14 13:27:00,84.8,68.4,30.06,South,190,0.0,7.0,58,0.00,,CLR,0.00,VWS V14.01,2013-07-14 18:27:00,
2013-07-14 13:29:00,85.0,68.1,30.06,East,81,0.0,7.0,57,0.00,,CLR,0.00,VWS V14.01,2013-07-14 18:29:00,
2013-07-14 13:30:00,85.0,68.6,30.06,ESE,110,0.0,7.0,58,0.00,,CLR,0.00,VWS V14.01,2013-07-14 18:30:00,
2013-07-14 13:31:00,85.0,68.6,30.06,SSE,158,0.0,0.0,58,0.00,,CLR,0.00,VWS V14.01,2013-07-14 18:31:00,
2013-07-14 13:32:00,85.0,68.6,30.06,South,175,0.0,0.0,58,0.00,,CLR,0.00,VWS V14.01,2013-07-14 18:32:00,
2013-07-14 13:34:00,85.2,69.3,30.06,South,182,0.0,0.0,59,0.00,,CLR,0.00,VWS V14.01,2013-07-14 18:34:00,
2013-07-14 13:35:00,85.2,68.8,30.06,SSW,198,0.0,6.0,58,0.00,,CLR,0.00,VWS V14.01,2013-07-14 18:35:00,
2013-07-14 13:37:00,85.2,68.3,30.06,SE,132,4.0,6.0,57,0.00,,CLR,0.00,VWS V14.01,2013-07-14 18:37:00,
2013-07-14 13:39:00,85.0,67.6,30.06,SSW,196,0.0,7.0,56,0.00,,CLR,0.00,VWS V14.01,2013-07-14 18:39:00,
2013-07-14 13:40:00,85.0,68.1,30.06,SSW,194,0.0,7.0,57,0.00,,CLR,0.00,VWS V14.01,2013-07-14 18:40:00,
2013-07-14 13:42:00,84.8,67.9,30.06,SSW,196,5.0,7.0,57,0.00,,CLR,0.00,VWS V14.01,2013-07-14 18:42:00,
2013-07-14 13:45:00,84.2,68.3,30.06,SE,136,0.0,7.0,59,0.00,,CLR,0.00,VWS V14.01,2013-07-14 18:45:00,
2013-07-14 13:47:00,84.2,69.3,30.06,South,180,0.0,7.0,61,0.00,,CLR,0.00,VWS V14.01,2013-07-14 18:47:00,
2013-07-14 13:50:00,84.2,68.3,30.06,SE,128,2.0,7.0,59,0.00,,CLR,0.00,VWS V14.01,2013-07-14 18:50:00,
2013-07-14 13:52:00,84.2,69.3,30.06,East,82,4.0,7.0,61,0.00,,CLR,0.00,VWS V14.01,2013-07-14 18:52:00,
2013-07-14 13:55:00,84.0,68.6,30.06,East,92,0.0,7.0,60,0.00,,CLR,0.00,VWS V14.01,2013-07-14 18:55:00,
2013-07-14 13:56:00,84.0,69.1,30.06,East,93,0.0,7.0,61,0.00,,CLR,0.00,VWS V14.01,2013-07-14 18:56:00,
2013-07-14 13:57:00,84.0,67.7,30.06,NE,49,2.0,7.0,58,0.00,,CLR,0.00,VWS V14.01,2013-07-14 18:57:00,
2013-07-14 13:58:00,84.0,67.7,30.06,East,91,4.0,7.0,58,0.00,,CLR,0.00,VWS V14.01,2013-07-14 18:58:00,
2013-07-14 14:00:00,84.0,69.1,30.06,NNE,14,0.0,7.0,61,0.00,,CLR,0.00,VWS V14.01,2013-07-14 19:00:00,
2013-07-14 14:01:00,84.0,69.6,30.06,NNE,23,0.0,0.0,62,0.00,,CLR,0.00,VWS V14.01,2013-07-14 19:01:00,
2013-07-14 14:02:00,84.2,69.8,30.06,ESE,103,0.0,1.0,62,0.00,,CLR,0.00,VWS V14.01,2013-07-14 19:02:00,
2013-07-14 14:03:00,84.2,69.8,30.06,SE,143,0.0,1.0,62,0.00,,CLR,0.00,VWS V14.01,2013-07-14 19:03:00,
2013-07-14 14:05:00,84.6,68.7,30.06,SSE,163,0.0,4.0,59,0.00,,CLR,0.00,VWS V14.01,2013-07-14 19:05:00,
2013-07-14 14:06:00,84.6,69.2,30.06,East,81,0.0,4.0,60,0.00,,CLR,0.00,VWS V14.01,2013-07-14 19:06:00,
2013-07-14 14:07:00,84.6,68.2,30.06,ENE,78,0.0,5.0,58,0.00,,CLR,0.00,VWS V14.01,2013-07-14 19:07:00,
2013-07-14 14:08:00,84.6,68.2,30.06,ENE,60,0.0,5.0,58,0.00,,CLR,0.00,VWS V14.01,2013-07-14 19:08:00,
2013-07-14 14:10:00,84.4,68.0,30.06,ESE,116,0.0,5.0,58,0.00,,CLR,0.00,VWS V14.01,2013-07-14 19:10:00,
2013-07-14 14:11:00,84.4,68.5,30.06,ESE,117,0.0,5.0,59,0.00,,CLR,0.00,VWS V14.01,2013-07-14 19:11:00,
2013-07-14 14:13:00,84.4,69.0,30.06,South,175,0.0,7.0,60,0.00,,CLR,0.00,VWS V14.01,2013-07-14 19:13:00,
2013-07-14 14:15:00,84.4,68.5,30.06,SSE,154,0.0,7.0,59,0.00,,CLR,0.00,VWS V14.01,2013-07-14 19:15:00,
2013-07-14 14:16:00,84.4,69.0,30.06,SSE,154,0.0,7.0,60,0.00,,CLR,0.00,VWS V14.01,2013-07-14 19:16:00,
2013-07-14 14:18:00,84.4,68.5,30.06,SSE,154,0.0,7.0,59,0.00,,CLR,0.00,VWS V14.01,2013-07-14 19:18:00,
2013-07-14 14:20:00,84.2,68.3,30.06,ESE,110,1.0,7.0,59,0.00,,CLR,0.00,VWS V14.01,2013-07-14 19:20:00,
2013-07-14 14:22:00,84.2,68.3,30.06,SSE,150,0.0,7.0,59,0.00,,CLR,0.00,VWS V14.01,2013-07-14 19:22:00,
2013-07-14 14:23:00,84.0,67.7,30.06,East,92,0.0,7.0,58,0.00,,CLR,0.00,VWS V14.01,2013-07-14 19:23:00,
2013-07-14 14:25:00,83.9,68.1,30.06,SSW,194,0.0,7.0,59,0.00,,CLR,0.00,VWS V14.01,2013-07-14 19:25:00,
2013-07-14 14:27:00,84.0,68.6,30.06,South,182,0.0,7.0,60,0.00,,CLR,0.00,VWS V14.01,2013-07-14 19:27:00,
2013-07-14 14:28:00,84.0,69.1,30.06,SSW,194,2.0,7.0,61,0.00,,CLR,0.00,VWS V14.01,2013-07-14 19:28:00,
2013-07-14 14:30:00,84.2,68.3,30.06,SW,234,0.0,7.0,59,0.00,,,0.00,VWS V14.01,2013-07-14 19:30:00,
2013-07-14 14:31:00,84.2,68.3,30.06,SW,224,0.0,1.0,59,0.00,,CLR,0.00,VWS V14.01,2013-07-14 19:31:00,
2013-07-14 14:32:00,84.2,68.8,30.06,SSW,209,0.0,1.0,60,0.00,,CLR,0.00,VWS V14.01,2013-07-14 19:32:00,
2013-07-14 14:33:00,84.4,69.0,30.06,SSW,204,1.0,4.0,60,0.00,,CLR,0.00,VWS V14.01,2013-07-14 19:33:00,
2013-07-14 14:34:00,84.4,69.0,30.06,SSW,207,0.0,7.0,60,0.00,,CLR,0.00,VWS V14.01,2013-07-14 19:34:00,
2013-07-14 14:36:00,84.6,70.2,30.06,SSW,198,0.0,7.0,62,0.00,,CLR,0.00,VWS V14.01,2013-07-14 19:36:00,
2013-07-14 14:37:00,84.6,69.2,30.06,SSW,194,0.0,7.0,60,0.00,,CLR,0.00,VWS V14.01,2013-07-14 19:37:00,
2013-07-14 14:38:00,84.8,68.4,30.06,South,178,2.0,7.0,58,0.00,,CLR,0.00,VWS V14.01,2013-07-14 19:38:00,
2013-07-14 14:39:00,84.8,68.4,30.06,SE,135,0.0,7.0,58,0.00,,CLR,0.00,VWS V14.01,2013-07-14 19:39:00,
2013-07-14 14:41:00,85.0,68.6,30.06,ESE,122,0.0,7.0,58,0.00,,CLR,0.00,VWS V14.01,2013-07-14 19:41:00,
2013-07-14 14:42:00,85.0,68.6,30.06,East,82,0.0,7.0,58,0.00,,CLR,0.00,VWS V14.01,2013-07-14 19:42:00,
2013-07-14 14:43:00,85.2,68.8,30.06,East,82,0.0,7.0,58,0.00,,CLR,0.00,VWS V14.01,2013-07-14 19:43:00,
2013-07-14 14:44:00,85.2,68.8,30.06,East,82,0.0,7.0,58,0.00,,CLR,0.00,VWS V14.01,2013-07-14 19:44:00,
2013-07-14 14:46:00,85.6,69.6,30.05,SSW,200,4.0,7.0,59,0.00,,SCT040,0.00,VWS V14.01,2013-07-14 19:46:00,
2013-07-14 14:47:00,85.6,69.1,30.05,South,183,0.0,7.0,58,0.00,,SCT040,0.00,VWS V14.01,2013-07-14 19:47:00,
2013-07-14 14:49:00,85.6,68.6,30.05,SSE,150,0.0,7.0,57,0.00,,SCT040,0.00,VWS V14.01,2013-07-14 19:49:00,
2013-07-14 14:51:00,85.8,69.8,30.05,SSE,153,0.0,7.0,59,0.00,,SCT040,0.00,VWS V14.01,2013-07-14 19:51:00,
2013-07-14 14:53:00,85.8,69.3,30.05,SSW,202,0.0,7.0,58,0.00,,SCT040,0.00,VWS V14.01,2013-07-14 19:53:00,
2013-07-14 14:54:00,85.8,68.8,30.05,SSW,206,4.0,7.0,57,0.00,,SCT040,0.00,VWS V14.01,2013-07-14 19:54:00,
2013-07-14 14:56:00,85.6,68.6,30.05,SSW,200,0.0,7.0,57,0.00,,SCT040,0.00,VWS V14.01,2013-07-14 19:56:00,
2013-07-14 14:58:00,85.4,69.0,30.05,SSW,193,0.0,7.0,58,0.00,,SCT040,0.00,VWS V14.01,2013-07-14 19:58:00,
2013-07-14 14:59:00,85.4,69.0,30.05,South,170,0.0,7.0,58,0.00,,SCT040,0.00,VWS V14.01,2013-07-14 19:59:00,
2013-07-14 15:00:00,85.6,69.1,30.05,ESE,119,0.0,7.0,58,0.00,,,0.00,VWS V14.01,2013-07-14 20:00:00,
2013-07-14 15:01:00,85.6,69.1,30.05,ENE,71,3.0,5.0,58,0.00,,SCT041,0.00,VWS V14.01,2013-07-14 20:01:00,
2013-07-14 15:03:00,85.6,68.1,30.05,ESE,121,0.0,6.0,56,0.00,,SCT041,0.00,VWS V14.01,2013-07-14 20:03:00,
2013-07-14 15:04:00,85.6,69.1,30.05,ENE,74,0.0,6.0,58,0.00,,SCT041,0.00,VWS V14.01,2013-07-14 20:04:00,
2013-07-14 15:06:00,85.8,69.3,30.05,South,188,0.0,6.0,58,0.00,,SCT041,0.00,VWS V14.01,2013-07-14 20:06:00,
2013-07-14 15:08:00,85.8,68.8,30.05,East,80,0.0,6.0,57,0.00,,SCT041,0.00,VWS V14.01,2013-07-14 20:08:00,
2013-07-14 15:09:00,86.0,69.5,30.05,SSW,213,0.0,6.0,58,0.00,,SCT041,0.00,VWS V14.01,2013-07-14 20:09:00,
2013-07-14 15:11:00,86.0,69.5,30.05,South,191,0.0,10.0,58,0.00,,SCT041,0.00,VWS V14.01,2013-07-14 20:11:00,
2013-07-14 15:13:00,86.0,69.5,30.05,ESE,115,1.0,10.0,58,0.00,,SCT041,0.00,VWS V14.01,2013-07-14 20:13:00,
2013-07-14 15:14:00,85.8,68.8,30.05,SE,140,0.0,10.0,57,0.00,,SCT041,0.00,VWS V14.01,2013-07-14 20:14:00,
2013-07-14 15:16:00,85.8,69.3,30.05,South,191,0.0,10.0,58,0.00,,SCT041,0.00,VWS V14.01,2013-07-14 20:16:00,
2013-07-14 15:18:00,85.8,69.3,30.05,East,93,0.0,10.0,58,0.00,,SCT041,0.00,VWS V14.01,2013-07-14 20:18:00,
2013-07-14 15:19:00,85.8,69.8,30.05,East,87,3.0,10.0,59,0.00,,SCT041,0.00,VWS V14.01,2013-07-14 20:19:00,
2013-07-14 15:21:00,85.4,69.0,30.05,SSW,205,0.0,10.0,58,0.00,,SCT041,0.00,VWS V14.01,2013-07-14 20:21:00,
2013-07-14 15:23:00,85.4,69.4,30.05,East,89,0.0,10.0,59,0.00,,SCT041,0.00,VWS V14.01,2013-07-14 20:23:00,
2013-07-14 15:24:00,85.6,70.1,30.05,East,90,0.0,10.0,60,0.00,,SCT041,0.00,VWS V14.01,2013-07-14 20:24:00,
2013-07-14 15:25:00,85.6,70.1,30.05,East,90,0.0,10.0,60,0.00,,SCT041,0.00,VWS V14.01,2013-07-14 20:25:00,
2013-07-14 15:26:00,85.6,69.1,30.05,East,90,0.0,10.0,58,0.00,,SCT041,0.00,VWS V14.01,2013-07-14 20:26:00,
2013-07-14 15:28:00,85.8,68.8,30.05,SE,138,0.0,10.0,57,0.00,,SCT041,0.00,VWS V14.01,2013-07-14 20:28:00,
2013-07-14 15:29:00,85.8,69.8,30.05,SSE,160,0.0,10.0,59,0.00,,SCT041,0.00,VWS V14.01,2013-07-14 20:29:00,
2013-07-14 15:30:00,85.8,69.8,30.04,South,174,4.0,10.0,59,0.00,,SCT041,0.00,VWS V14.01,2013-07-14 20:30:00,
2013-07-14 15:31:00,85.8,68.3,30.04,SE,134,0.0,5.0,56,0.00,,SCT041,0.00,VWS V14.01,2013-07-14 20:31:00,
2013-07-14 15:33:00,85.6,68.1,30.04,SE,144,0.0,5.0,56,0.00,,SCT041,0.00,VWS V14.01,2013-07-14 20:33:00,
2013-07-14 15:35:00,85.6,68.6,30.04,SE,144,0.0,5.0,57,0.00,,SCT041,0.00,VWS V14.01,2013-07-14 20:35:00,
2013-07-14 15:36:00,85.6,68.6,30.04,SE,144,0.0,5.0,57,0.00,,SCT041,0.00,VWS V14.01,2013-07-14 20:36:00,
2013-07-14 15:38:00,85.6,69.1,30.04,East,90,0.0,5.0,58,0.00,,SCT041,0.00,VWS V14.01,2013-07-14 20:38:00,
2013-07-14 15:40:00,85.4,69.0,30.04,East,88,3.0,5.0,58,0.00,,SCT041,0.00,VWS V14.01,2013-07-14 20:40:00,
2013-07-14 15:41:00,85.4,69.0,30.04,ESE,103,0.0,5.0,58,0.00,,SCT041,0.00,VWS V14.01,2013-07-14 20:41:00,
2013-07-14 15:43:00,85.2,68.8,30.04,East,85,0.0,5.0,58,0.00,,SCT041,0.00,VWS V14.01,2013-07-14 20:43:00,
2013-07-14 15:45:00,85.0,68.6,30.04,ESE,123,0.0,5.0,58,0.00,,SCT041,0.00,VWS V14.01,2013-07-14 20:45:00,
2013-07-14 15:46:00,85.0,69.1,30.04,East,88,0.0,5.0,59,0.00,,SCT065,0.00,VWS V14.01,2013-07-14 20:46:00,
2013-07-14 15:47:00,85.0,69.1,30.04,East,94,0.0,5.0,59,0.00,,SCT065,0.00,VWS V14.01,2013-07-14 20:47:00,
2013-07-14 15:49:00,85.0,69.6,30.04,ESE,105,0.0,5.0,60,0.00,,SCT065,0.00,VWS V14.01,2013-07-14 20:49:00,
2013-07-14 15:50:00,84.8,69.4,30.04,ESE,111,0.0,5.0,60,0.00,,SCT065,0.00,VWS V14.01,2013-07-14 20:50:00,
2013-07-14 15:51:00,84.8,69.4,30.04,East,82,0.0,5.0,60,0.00,,SCT065,0.00,VWS V14.01,2013-07-14 20:51:00,
2013-07-14 15:52:00,84.8,68.9,30.04,ENE,77,0.0,5.0,59,0.00,,SCT065,0.00,VWS V14.01,2013-07-14 20:52:00,
2013-07-14 15:55:00,84.8,68.9,30.04,East,85,0.0,5.0,59,0.00,,SCT065,0.00,VWS V14.01,2013-07-14 20:55:00,
2013-07-14 15:56:00,84.8,68.4,30.04,SE,124,0.0,5.0,58,0.00,,SCT065,0.00,VWS V14.01,2013-07-14 20:56:00,
2013-07-14 15:57:00,84.8,68.9,30.04,East,82,5.0,5.0,59,0.00,,SCT065,0.00,VWS V14.01,2013-07-14 20:57:00,
2013-07-14 16:00:00,84.8,69.4,30.04,SE,130,0.0,5.0,60,0.00,,SCT065,0.00,VWS V14.01,2013-07-14 21:00:00,
2013-07-14 16:01:00,84.8,69.9,30.04,ESE,121,0.0,0.0,61,0.00,,SCT065,0.00,VWS V14.01,2013-07-14 21:01:00,
2013-07-14 16:02:00,84.8,69.9,30.04,ENE,75,0.0,1.0,61,0.00,,SCT065,0.00,VWS V14.01,2013-07-14 21:02:00,
2013-07-14 16:05:00,84.6,69.7,30.04,ESE,114,0.0,3.0,61,0.00,,SCT065,0.00,VWS V14.01,2013-07-14 21:05:00,
2013-07-14 16:06:00,84.6,69.2,30.04,SE,130,0.0,3.0,60,0.00,,SCT065,0.00,VWS V14.01,2013-07-14 21:06:00,
2013-07-14 16:07:00,84.6,69.2,30.04,SE,130,0.0,3.0,60,0.00,,SCT065,0.00,VWS V14.01,2013-07-14 21:07:00,
2013-07-14 16:10:00,84.6,69.7,30.04,East,88,0.0,7.0,61,0.00,,SCT065,0.00,VWS V14.01,2013-07-14 21:10:00,
2013-07-14 16:11:00,84.6,70.2,30.04,SE,139,3.0,7.0,62,0.00,,SCT065,0.00,VWS V14.01,2013-07-14 21:11:00,
2013-07-14 16:12:00,84.4,70.0,30.04,ESE,102,3.0,7.0,62,0.00,,SCT065,0.00,VWS V14.01,2013-07-14 21:12:00,
2013-07-14 16:15:00,84.0,69.6,30.04,ENE,74,3.0,7.0,62,0.00,,SCT065,0.00,VWS V14.01,2013-07-14 21:15:00,
2013-07-14 16:16:00,84.0,69.6,30.04,East,83,0.0,7.0,62,0.00,,SCT065,0.00,VWS V14.01,2013-07-14 21:16:00,
2013-07-14 16:17:00,84.0,70.1,30.04,ESE,108,0.0,7.0,63,0.00,,SCT065,0.00,VWS V14.01,2013-07-14 21:17:00,
2013-07-14 16:20:00,84.2,70.2,30.04,East,83,0.0,7.0,63,0.00,,SCT065,0.00,VWS V14.01,2013-07-14 21:20:00,
2013-07-14 16:21:00,84.2,70.2,30.04,East,82,0.0,7.0,63,0.00,,SCT065,0.00,VWS V14.01,2013-07-14 21:21:00,
2013-07-14 16:22:00,84.4,70.9,30.04,East,90,0.0,7.0,64,0.00,,SCT065,0.00,VWS V14.01,2013-07-14 21:22:00,
2013-07-14 16:25:00,84.6,70.2,30.04,South,173,0.0,7.0,62,0.00,,SCT065,0.00,VWS V14.01,2013-07-14 21:25:00,
2013-07-14 16:26:00,84.8,70.3,30.04,South,173,0.0,7.0,62,0.00,,SCT065,0.00,VWS V14.01,2013-07-14 21:26:00,
2013-07-14 16:27:00,84.8,70.3,30.04,SE,138,5.0,7.0,62,0.00,,SCT065,0.00,VWS V14.01,2013-07-14 21:27:00,
2013-07-14 16:30:00,84.8,69.9,30.04,ESE,116,0.0,7.0,61,0.00,,,0.00,VWS V14.01,2013-07-14 21:30:00,
2013-07-14 16:31:00,84.8,69.9,30.04,East,84,0.0,0.0,61,0.00,,SCT065,0.00,VWS V14.01,2013-07-14 21:31:00,
2013-07-14 16:32:00,85.0,69.6,30.04,ESE,121,0.0,1.0,60,0.00,,SCT065,0.00,VWS V14.01,2013-07-14 21:32:00,
2013-07-14 16:36:00,85.4,69.4,30.04,ESE,113,0.0,1.0,59,0.00,,SCT065,0.00,VWS V14.01,2013-07-14 21:36:00,
2013-07-14 16:37:00,85.6,69.1,30.04,ESE,102,0.0,1.0,58,0.00,,SCT065,0.00,VWS V14.01,2013-07-14 21:37:00,
2013-07-14 16:38:00,85.8,68.3,30.04,East,84,0.0,1.0,56,0.00,,SCT065,0.00,VWS V14.01,2013-07-14 21:38:00,
2013-07-14 16:41:00,85.8,68.3,30.04,East,86,0.0,6.0,56,0.00,,SCT065,0.00,VWS V14.01,2013-07-14 21:41:00,
2013-07-14 16:42:00,85.8,68.8,30.04,SE,137,3.0,6.0,57,0.00,,SCT065,0.00,VWS V14.01,2013-07-14 21:42:00,
2013-07-14 16:43:00,85.6,68.6,30.04,ESE,103,0.0,6.0,57,0.00,,SCT065,0.00,VWS V14.01,2013-07-14 21:43:00,
2013-07-14 16:46:00,85.0,68.6,30.04,ESE,123,1.0,6.0,58,0.00,,-RA,0.00,VWS V14.01,2013-07-14 21:46:00,
2013-07-14 16:47:00,84.8,68.9,30.04,East,98,0.0,6.0,59,0.00,,-RA,0.00,VWS V14.01,2013-07-14 21:47:00,
2013-07-14 16:48:00,84.8,68.9,30.04,North,5,0.0,6.0,59,0.00,,-RA,0.00,VWS V14.01,2013-07-14 21:48:00,
2013-07-14 16:51:00,84.6,69.7,30.04,East,87,0.0,6.0,61,0.00,,-RA,0.00,VWS V14.01,2013-07-14 21:51:00,
2013-07-14 16:52:00,84.6,70.2,30.04,East,81,1.0,6.0,62,0.00,,-RA,0.00,VWS V14.01,2013-07-14 21:52:00,
2013-07-14 16:53:00,84.6,70.2,30.04,East,81,0.0,6.0,62,0.00,,-RA,0.00,VWS V14.01,2013-07-14 21:53:00,
2013-07-14 16:56:00,84.6,68.7,30.04,East,89,0.0,6.0,59,0.00,,-RA,0.00,VWS V14.01,2013-07-14 21:56:00,
2013-07-14 16:57:00,84.6,68.7,30.04,East,89,0.0,6.0,59,0.00,,-RA,0.00,VWS V14.01,2013-07-14 21:57:00,
2013-07-14 16:58:00,84.6,69.2,30.04,East,84,4.0,6.0,60,0.00,,-RA,0.00,VWS V14.01,2013-07-14 21:58:00,
2013-07-14 17:00:00,84.6,68.7,30.03,SE,129,0.0,6.0,59,0.00,,,0.00,VWS V14.01,2013-07-14 22:00:00,
2013-07-14 17:01:00,84.6,69.2,30.03,East,95,0.0,0.0,60,0.00,,SCT110,0.00,VWS V14.01,2013-07-14 22:01:00,
2013-07-14 17:02:00,84.6,69.2,30.03,East,95,0.0,0.0,60,0.00,,SCT110,0.00,VWS V14.01,2013-07-14 22:02:00,
2013-07-14 17:03:00,84.6,69.2,30.03,East,95,0.0,0.0,60,0.00,,SCT110,0.00,VWS V14.01,2013-07-14 22:03:00,
2013-07-14 17:06:00,85.0,69.6,30.03,East,95,0.0,0.0,60,0.00,,SCT110,0.00,VWS V14.01,2013-07-14 22:06:00,
2013-07-14 17:07:00,85.0,69.6,30.03,East,95,0.0,0.0,60,0.00,,SCT110,0.00,VWS V14.01,2013-07-14 22:07:00,
2013-07-14 17:08:00,85.0,70.1,30.03,East,95,0.0,0.0,61,0.00,,SCT110,0.00,VWS V14.01,2013-07-14 22:08:00,
2013-07-14 17:12:00,85.2,69.8,30.03,East,95,0.0,0.0,60,0.00,,SCT110,0.00,VWS V14.01,2013-07-14 22:12:00,
2013-07-14 17:13:00,85.2,70.2,30.03,East,95,0.0,0.0,61,0.00,,SCT110,0.00,VWS V14.01,2013-07-14 22:13:00,
2013-07-14 17:14:00,85.4,70.4,30.03,East,95,0.0,0.0,61,0.00,,SCT110,0.00,VWS V14.01,2013-07-14 22:14:00,
2013-07-14 17:17:00,85.2,69.3,30.03,SSE,161,0.0,1.0,59,0.00,,SCT110,0.00,VWS V14.01,2013-07-14 22:17:00,
2013-07-14 17:18:00,85.0,69.1,30.03,SSE,161,0.0,1.0,59,0.00,,SCT110,0.00,VWS V14.01,2013-07-14 22:18:00,
2013-07-14 17:19:00,85.0,69.1,30.03,SSE,161,0.0,1.0,59,0.00,,SCT110,0.00,VWS V14.01,2013-07-14 22:19:00,
2013-07-14 17:22:00,84.6,68.2,30.03,South,169,0.0,1.0,58,0.00,,SCT110,0.00,VWS V14.01,2013-07-14 22:22:00,
2013-07-14 17:23:00,84.4,68.5,30.03,South,169,0.0,1.0,59,0.00,,SCT110,0.00,VWS V14.01,2013-07-14 22:23:00,
2013-07-14 17:24:00,84.4,69.0,30.03,SE,146,0.0,1.0,60,0.00,,SCT110,0.00,VWS V14.01,2013-07-14 22:24:00,
2013-07-14 17:27:00,84.4,72.2,30.03,ESE,123,0.0,1.0,67,0.03,,SCT110,0.03,VWS V14.01,2013-07-14 22:27:00,
2013-07-14 17:28:00,84.0,72.3,30.03,East,80,0.0,1.0,68,0.04,,SCT110,0.04,VWS V14.01,2013-07-14 22:28:00,
2013-07-14 17:29:00,83.9,72.2,30.03,East,84,0.0,1.0,68,0.05,,SCT110,0.05,VWS V14.01,2013-07-14 22:29:00,
2013-07-14 17:30:00,83.3,72.5,30.04,ESE,115,0.0,1.0,70,0.12,,,0.12,VWS V14.01,2013-07-14 22:30:00,
2013-07-14 17:32:00,82.5,73.0,30.04,ESE,123,0.0,0.0,73,0.14,,SCT110,0.14,VWS V14.01,2013-07-14 22:32:00,
2013-07-14 17:33:00,81.9,73.2,30.04,ESE,122,0.0,0.0,75,0.14,,SCT110,0.14,VWS V14.01,2013-07-14 22:33:00,
2013-07-14 17:34:00,81.7,73.0,30.04,ESE,123,0.0,0.0,75,0.14,,SCT110,0.14,VWS V14.01,2013-07-14 22:34:00,
2013-07-14 17:37:00,80.6,72.3,30.04,ESE,122,0.0,0.0,76,0.14,,SCT110,0.14,VWS V14.01,2013-07-14 22:37:00,
2013-07-14 17:38:00,80.4,73.3,30.04,ESE,123,0.0,0.0,79,0.14,,SCT110,0.14,VWS V14.01,2013-07-14 22:38:00,
2013-07-14 17:39:00,80.4,73.3,30.04,ESE,123,0.0,0.0,79,0.14,,SCT110,0.14,VWS V14.01,2013-07-14 22:39:00,
2013-07-14 17:42:00,79.7,73.0,30.04,ESE,123,0.0,0.0,80,0.14,,SCT110,0.14,VWS V14.01,2013-07-14 22:42:00,
2013-07-14 17:43:00,79.5,72.8,30.04,ESE,123,0.0,0.0,80,0.14,,SCT110,0.14,VWS V14.01,2013-07-14 22:43:00,
2013-07-14 17:44:00,79.3,73.0,30.04,ESE,123,0.0,0.0,81,0.14,,SCT110,0.14,VWS V14.01,2013-07-14 22:44:00,
2013-07-14 17:47:00,78.9,73.3,30.05,ESE,123,0.0,0.0,83,0.14,,BKN110,0.14,VWS V14.01,2013-07-14 22:47:00,
2013-07-14 17:48:00,78.7,73.1,30.05,ESE,123,0.0,0.0,83,0.14,,BKN110,0.14,VWS V14.01,2013-07-14 22:48:00,
2013-07-14 17:49:00,78.5,72.9,30.05,SE,126,0.0,0.0,83,0.14,,BKN110,0.14,VWS V14.01,2013-07-14 22:49:00,
2013-07-14 17:52:00,78.0,73.1,30.05,SE,126,0.0,0.0,85,0.14,,BKN110,0.14,VWS V14.01,2013-07-14 22:52:00,
2013-07-14 17:53:00,77.8,72.9,30.05,SE,130,0.0,0.0,85,0.14,,BKN110,0.14,VWS V14.01,2013-07-14 22:53:00,
2013-07-14 17:54:00,77.8,72.6,30.05,SE,130,0.0,0.0,84,0.14,,BKN110,0.14,VWS V14.01,2013-07-14 22:54:00,
2013-07-14 17:57:00,77.1,71.9,30.05,SE,130,0.0,0.0,84,0.14,,BKN110,0.14,VWS V14.01,2013-07-14 22:57:00,
2013-07-14 17:59:00,76.7,71.5,30.05,SE,130,0.0,0.0,84,0.14,,BKN110,0.14,VWS V14.01,2013-07-14 22:59:00,
2013-07-14 18:00:00,76.6,71.8,30.05,SE,130,0.0,0.0,85,0.14,,BKN110,0.14,VWS V14.01,2013-07-14 23:00:00,
2013-07-14 18:04:00,76.4,71.9,30.05,SE,130,0.0,0.0,86,0.14,,BKN070,0.14,VWS V14.01,2013-07-14 23:04:00,
2013-07-14 18:05:00,76.2,71.7,30.05,SE,130,0.0,0.0,86,0.14,,BKN070,0.14,VWS V14.01,2013-07-14 23:05:00,
2013-07-14 18:09:00,76.2,72.1,30.05,SE,130,0.0,0.0,87,0.14,,BKN070,0.14,VWS V14.01,2013-07-14 23:09:00,
2013-07-14 18:10:00,76.2,72.1,30.05,SE,130,0.0,0.0,87,0.14,,BKN070,0.14,VWS V14.01,2013-07-14 23:10:00,
2013-07-14 18:14:00,76.2,72.4,30.05,SE,130,0.0,0.0,88,0.14,,BKN070,0.14,VWS V14.01,2013-07-14 23:14:00,
2013-07-14 18:15:00,76.2,72.4,30.05,SE,130,0.0,0.0,88,0.14,,BKN070,0.14,VWS V14.01,2013-07-14 23:15:00,
2013-07-14 18:19:00,76.4,72.6,30.05,SE,130,0.0,0.0,88,0.14,,BKN070,0.14,VWS V14.01,2013-07-14 23:19:00,
2013-07-14 18:20:00,76.4,72.6,30.05,SE,130,0.0,0.0,88,0.14,,BKN070,0.14,VWS V14.01,2013-07-14 23:20:00,
2013-07-14 18:24:00,76.6,72.8,30.05,SE,130,0.0,0.0,88,0.14,,BKN070,0.14,VWS V14.01,2013-07-14 23:24:00,
2013-07-14 18:25:00,76.6,72.8,30.05,SE,130,0.0,0.0,88,0.14,,BKN070,0.14,VWS V14.01,2013-07-14 23:25:00,
2013-07-14 18:29:00,76.6,72.8,30.05,SE,130,0.0,0.0,88,0.14,,BKN070,0.14,VWS V14.01,2013-07-14 23:29:00,
2013-07-14 18:30:00,76.6,72.8,30.05,SE,130,0.0,0.0,88,0.14,,BKN070,0.14,VWS V14.01,2013-07-14 23:30:00,
2013-07-14 18:34:00,76.6,72.8,30.05,SE,130,0.0,0.0,88,0.02,,BKN070,0.14,VWS V14.01,2013-07-14 23:34:00,
2013-07-14 18:35:00,76.6,72.8,30.05,SE,130,0.0,0.0,88,0.02,,BKN070,0.14,VWS V14.01,2013-07-14 23:35:00,
2013-07-14 18:39:00,76.6,72.8,30.05,SE,130,0.0,0.0,88,0.03,,BKN070,0.15,VWS V14.01,2013-07-14 23:39:00,
2013-07-14 18:40:00,76.6,72.8,30.05,SE,130,0.0,0.0,88,0.03,,BKN070,0.15,VWS V14.01,2013-07-14 23:40:00,
2013-07-14 18:44:00,76.6,72.8,30.05,SE,130,0.0,0.0,88,0.03,,BKN070,0.15,VWS V14.01,2013-07-14 23:44:00,
2013-07-14 18:45:00,76.6,72.8,30.05,SE,130,0.0,0.0,88,0.03,,BKN070,0.15,VWS V14.01,2013-07-14 23:45:00,
2013-07-14 18:46:00,76.6,72.8,30.05,SE,130,0.0,0.0,88,0.03,,-RA,0.15,VWS V14.01,2013-07-14 23:46:00,
2013-07-14 18:49:00,76.6,72.8,30.05,SE,130,0.0,0.0,88,0.03,,-RA,0.15,VWS V14.01,2013-07-14 23:49:00,
2013-07-14 18:50:00,76.6,72.8,30.05,SE,130,0.0,0.0,88,0.03,,-RA,0.15,VWS V14.01,2013-07-14 23:50:00,
2013-07-14 18:51:00,76.4,72.6,30.05,SE,130,0.0,0.0,88,0.03,,-RA,0.15,VWS V14.01,2013-07-14 23:51:00,
2013-07-14 18:54:00,76.4,72.6,30.05,SE,130,0.0,0.0,88,0.03,,-RA,0.15,VWS V14.01,2013-07-14 23:54:00,
2013-07-14 18:55:00,76.4,72.6,30.05,SE,130,0.0,0.0,88,0.03,,-RA,0.15,VWS V14.01,2013-07-14 23:55:00,
2013-07-14 18:56:00,76.4,72.6,30.05,SE,130,0.0,0.0,88,0.03,,-RA,0.15,VWS V14.01,2013-07-14 23:56:00,
2013-07-14 18:59:00,76.2,72.7,30.05,SE,130,0.0,0.0,89,0.03,,-RA,0.15,VWS V14.01,2013-07-14 23:59:00,
2013-07-14 19:00:00,76.2,72.7,30.06,SE,130,0.0,0.0,89,0.03,,-RA,0.15,VWS V14.01,2013-07-15 00:00:00,
2013-07-14 19:01:00,76.2,72.7,30.06,SE,130,0.0,0.0,89,0.01,,BKN095,0.15,VWS V14.01,2013-07-15 00:01:00,
2013-07-14 19:04:00,76.0,72.5,30.06,SE,130,0.0,0.0,89,0.01,,BKN095,0.15,VWS V14.01,2013-07-15 00:04:00,
2013-07-14 19:05:00,76.0,72.5,30.06,SE,130,0.0,0.0,89,0.01,,BKN095,0.15,VWS V14.01,2013-07-15 00:05:00,
2013-07-14 19:06:00,76.0,72.5,30.06,SE,130,0.0,0.0,89,0.01,,BKN095,0.15,VWS V14.01,2013-07-15 00:06:00,
2013-07-14 19:10:00,76.2,72.7,30.06,SE,130,0.0,0.0,89,0.01,,BKN095,0.15,VWS V14.01,2013-07-15 00:10:00,
2013-07-14 19:11:00,76.2,72.7,30.06,SE,130,0.0,0.0,89,0.01,,BKN095,0.15,VWS V14.01,2013-07-15 00:11:00,
2013-07-14 19:15:00,76.4,72.9,30.06,SE,130,0.0,0.0,89,0.01,,BKN095,0.15,VWS V14.01,2013-07-15 00:15:00,
2013-07-14 19:16:00,76.4,72.9,30.05,SE,130,0.0,0.0,89,0.01,,BKN120,0.15,VWS V14.01,2013-07-15 00:16:00,
2013-07-14 19:20:00,76.6,73.1,30.05,SE,129,0.0,0.0,89,0.01,,BKN120,0.15,VWS V14.01,2013-07-15 00:20:00,
2013-07-14 19:21:00,76.6,73.1,30.05,SE,129,0.0,0.0,89,0.01,,BKN120,0.15,VWS V14.01,2013-07-15 00:21:00,
2013-07-14 19:25:00,76.7,73.2,30.05,SE,129,0.0,0.0,89,0.01,,BKN120,0.15,VWS V14.01,2013-07-15 00:25:00,
2013-07-14 19:27:00,76.7,73.2,30.05,SE,129,0.0,0.0,89,0.01,,BKN120,0.15,VWS V14.01,2013-07-15 00:27:00,
2013-07-14 19:30:00,76.7,73.2,30.06,SE,129,0.0,0.0,89,0.01,,BKN120,0.15,VWS V14.01,2013-07-15 00:30:00,
2013-07-14 19:32:00,76.7,73.2,30.06,SE,129,0.0,0.0,89,0.01,,BKN120,0.15,VWS V14.01,2013-07-15 00:32:00,
2013-07-14 19:35:00,76.7,73.2,30.06,SE,129,0.0,0.0,89,0.01,,BKN120,0.15,VWS V14.01,2013-07-15 00:35:00,
2013-07-14 19:36:00,76.7,73.2,30.06,SE,129,0.0,0.0,89,0.01,,BKN120,0.15,VWS V14.01,2013-07-15 00:36:00,
2013-07-14 19:37:00,76.7,73.2,30.06,SE,129,0.0,0.0,89,0.01,,BKN120,0.15,VWS V14.01,2013-07-15 00:37:00,
2013-07-14 19:41:00,76.9,73.4,30.06,SE,130,0.0,0.0,89,0.01,,BKN120,0.15,VWS V14.01,2013-07-15 00:41:00,
2013-07-14 19:42:00,76.9,73.4,30.06,SE,130,0.0,0.0,89,0.01,,BKN120,0.15,VWS V14.01,2013-07-15 00:42:00,
2013-07-14 19:46:00,77.1,73.6,30.08,ESE,122,0.0,1.0,89,0.05,,SCT110,0.19,VWS V14.01,2013-07-15 00:46:00,
2013-07-14 19:47:00,76.9,73.8,30.08,ESE,115,0.0,3.0,90,0.07,,SCT110,0.22,VWS V14.01,2013-07-15 00:47:00,
2013-07-14 19:51:00,76.6,73.1,30.08,South,179,0.0,3.0,89,0.12,,SCT110,0.26,VWS V14.01,2013-07-15 00:51:00,
2013-07-14 19:52:00,76.4,72.9,30.08,South,179,0.0,3.0,89,0.13,,SCT110,0.27,VWS V14.01,2013-07-15 00:52:00,
2013-07-14 19:56:00,75.9,72.4,30.08,South,179,0.0,3.0,89,0.14,,SCT110,0.28,VWS V14.01,2013-07-15 00:56:00,
2013-07-14 19:57:00,75.9,72.8,30.08,South,179,0.0,3.0,90,0.14,,SCT110,0.28,VWS V14.01,2013-07-15 00:57:00,
2013-07-14 20:00:00,75.5,72.4,30.07,South,179,0.0,3.0,90,0.14,,,0.28,VWS V14.01,2013-07-15 01:00:00,
2013-07-14 20:01:00,75.5,72.4,30.07,South,179,0.0,0.0,90,0.13,,CLR,0.28,VWS V14.01,2013-07-15 01:01:00,
2013-07-14 20:02:00,75.3,72.2,30.07,South,177,0.0,0.0,90,0.13,,CLR,0.28,VWS V14.01,2013-07-15 01:02:00,
2013-07-14 20:06:00,75.0,71.9,30.07,South,177,0.0,0.0,90,0.13,,CLR,0.28,VWS V14.01,2013-07-15 01:06:00,
2013-07-14 20:07:00,75.0,71.9,30.07,South,177,0.0,0.0,90,0.13,,CLR,0.28,VWS V14.01,2013-07-15 01:07:00,
2013-07-14 20:11:00,75.0,72.2,30.07,South,177,0.0,0.0,91,0.13,,CLR,0.28,VWS V14.01,2013-07-15 01:11:00,
2013-07-14 20:12:00,74.8,71.7,30.07,South,177,0.0,0.0,90,0.13,,CLR,0.28,VWS V14.01,2013-07-15 01:12:00,
2013-07-14 20:13:00,74.8,72.0,30.07,South,177,0.0,0.0,91,0.13,,CLR,0.28,VWS V14.01,2013-07-15 01:13:00,
2013-07-14 20:16:00,74.8,72.0,30.07,South,177,0.0,0.0,91,0.13,,SCT110,0.28,VWS V14.01,2013-07-15 01:16:00,
2013-07-14 20:17:00,74.8,72.0,30.07,South,177,0.0,0.0,91,0.13,,SCT110,0.28,VWS V14.01,2013-07-15 01:17:00,
2013-07-14 20:18:00,74.8,72.0,30.07,South,177,0.0,0.0,91,0.13,,SCT110,0.28,VWS V14.01,2013-07-15 01:18:00,
2013-07-14 20:21:00,74.6,71.8,30.07,South,177,0.0,0.0,91,0.13,,SCT110,0.28,VWS V14.01,2013-07-15 01:21:00,
2013-07-14 20:22:00,74.6,71.8,30.07,South,177,0.0,0.0,91,0.13,,SCT110,0.28,VWS V14.01,2013-07-15 01:22:00,
2013-07-14 20:23:00,74.6,71.8,30.07,South,177,0.0,0.0,91,0.13,,SCT110,0.28,VWS V14.01,2013-07-15 01:23:00,
2013-07-14 20:26:00,74.3,71.5,30.07,South,177,0.0,0.0,91,0.13,,SCT110,0.28,VWS V14.01,2013-07-15 01:26:00,
2013-07-14 20:27:00,74.3,71.5,30.07,South,177,0.0,0.0,91,0.13,,SCT110,0.28,VWS V14.01,2013-07-15 01:27:00,
2013-07-14 20:28:00,74.3,71.5,30.07,South,177,0.0,0.0,91,0.13,,SCT110,0.28,VWS V14.01,2013-07-15 01:28:00,
2013-07-14 20:30:00,74.1,71.3,30.06,South,177,0.0,0.0,91,0.13,,,0.28,VWS V14.01,2013-07-15 01:30:00,
2013-07-14 20:31:00,74.1,71.3,30.06,South,177,0.0,0.0,91,0.13,,CLR,0.28,VWS V14.01,2013-07-15 01:31:00,
2013-07-14 20:32:00,74.1,71.3,30.06,South,177,0.0,0.0,91,0.13,,CLR,0.28,VWS V14.01,2013-07-15 01:32:00,
2013-07-14 20:33:00,74.1,71.3,30.06,South,177,0.0,0.0,91,0.13,,CLR,0.28,VWS V14.01,2013-07-15 01:33:00,
2013-07-14 20:37:00,74.1,71.6,30.06,South,177,0.0,0.0,92,0.13,,CLR,0.28,VWS V14.01,2013-07-15 01:37:00,
2013-07-14 20:38:00,74.1,71.6,30.06,South,177,0.0,0.0,92,0.13,,CLR,0.28,VWS V14.01,2013-07-15 01:38:00,
2013-07-14 20:42:00,74.1,71.6,30.06,South,177,0.0,0.0,92,0.13,,CLR,0.28,VWS V14.01,2013-07-15 01:42:00,
2013-07-14 20:43:00,74.1,71.6,30.06,South,177,0.0,0.0,92,0.13,,CLR,0.28,VWS V14.01,2013-07-15 01:43:00,
2013-07-14 20:47:00,74.1,71.6,30.07,South,177,0.0,0.0,92,0.13,,RA,0.28,VWS V14.01,2013-07-15 01:47:00,
2013-07-14 20:48:00,74.1,71.6,30.07,South,177,0.0,0.0,92,0.13,,RA,0.28,VWS V14.01,2013-07-15 01:48:00,
2013-07-14 20:52:00,74.1,71.3,30.07,South,177,0.0,0.0,91,0.13,,RA,0.28,VWS V14.01,2013-07-15 01:52:00,
2013-07-14 20:53:00,74.1,71.3,30.07,South,177,0.0,0.0,91,0.13,,RA,0.28,VWS V14.01,2013-07-15 01:53:00,
2013-07-14 20:54:00,74.1,71.3,30.07,South,177,0.0,0.0,91,0.13,,RA,0.28,VWS V14.01,2013-07-15 01:54:00,
2013-07-14 20:58:00,73.9,71.1,30.07,South,177,0.0,0.0,91,0.13,,RA,0.28,VWS V14.01,2013-07-15 01:58:00,
2013-07-14 20:59:00,73.9,71.4,30.07,South,177,0.0,0.0,92,0.13,,RA,0.28,VWS V14.01,2013-07-15 01:59:00,
2013-07-14 21:00:00,73.9,71.1,30.07,South,177,0.0,0.0,91,0.13,,,0.28,VWS V14.01,2013-07-15 02:00:00,
2013-07-14 21:03:00,73.8,71.0,30.07,South,177,0.0,0.0,91,0.00,,BKN065,0.28,VWS V14.01,2013-07-15 02:03:00,
2013-07-14 21:04:00,73.8,71.0,30.07,South,177,0.0,0.0,91,0.00,,BKN065,0.28,VWS V14.01,2013-07-15 02:04:00,
2013-07-14 21:08:00,73.8,71.3,30.07,South,177,0.0,0.0,92,0.00,,BKN065,0.28,VWS V14.01,2013-07-15 02:08:00,
2013-07-14 21:09:00,73.8,71.3,30.07,South,177,0.0,0.0,92,0.00,,BKN065,0.28,VWS V14.01,2013-07-15 02:09:00,
2013-07-14 21:13:00,73.9,71.4,30.07,South,177,0.0,0.0,92,0.00,,BKN065,0.28,VWS V14.01,2013-07-15 02:13:00,
2013-07-14 21:14:00,73.9,71.4,30.07,South,177,0.0,0.0,92,0.00,,BKN065,0.28,VWS V14.01,2013-07-15 02:14:00,
2013-07-14 21:18:00,74.1,71.6,30.08,South,177,0.0,0.0,92,0.00,,BKN065,0.28,VWS V14.01,2013-07-15 02:18:00,
2013-07-14 21:19:00,74.1,71.6,30.08,South,177,0.0,0.0,92,0.00,,BKN065,0.28,VWS V14.01,2013-07-15 02:19:00,
2013-07-14 21:23:00,73.9,71.4,30.08,South,177,0.0,0.0,92,0.00,,BKN065,0.28,VWS V14.01,2013-07-15 02:23:00,
2013-07-14 21:24:00,73.9,71.4,30.08,South,177,0.0,0.0,92,0.00,,BKN065,0.28,VWS V14.01,2013-07-15 02:24:00,
2013-07-14 21:28:00,74.1,71.6,30.08,South,177,0.0,0.0,92,0.00,,BKN065,0.28,VWS V14.01,2013-07-15 02:28:00,
2013-07-14 21:29:00,74.1,71.6,30.08,South,177,0.0,0.0,92,0.00,,BKN065,0.28,VWS V14.01,2013-07-15 02:29:00,
2013-07-14 21:30:00,74.1,71.6,30.09,South,177,0.0,0.0,92,0.00,,,0.28,VWS V14.01,2013-07-15 02:30:00,
2013-07-14 21:33:00,74.3,71.8,30.09,South,177,0.0,0.0,92,0.00,,BKN065,0.28,VWS V14.01,2013-07-15 02:33:00,
2013-07-14 21:34:00,74.3,71.8,30.09,South,177,0.0,0.0,92,0.00,,BKN065,0.28,VWS V14.01,2013-07-15 02:34:00,
2013-07-14 21:35:00,74.3,71.8,30.09,South,177,0.0,0.0,92,0.00,,BKN065,0.28,VWS V14.01,2013-07-15 02:35:00,
2013-07-14 21:38:00,74.5,72.0,30.09,South,177,0.0,0.0,92,0.00,,BKN065,0.28,VWS V14.01,2013-07-15 02:38:00,
2013-07-14 21:39:00,74.5,72.0,30.09,South,177,0.0,0.0,92,0.00,,BKN065,0.28,VWS V14.01,2013-07-15 02:39:00,
2013-07-14 21:40:00,74.5,72.0,30.09,South,177,0.0,0.0,92,0.00,,BKN065,0.28,VWS V14.01,2013-07-15 02:40:00,
2013-07-14 21:43:00,74.6,72.1,30.09,South,177,0.0,0.0,92,0.00,,BKN065,0.28,VWS V14.01,2013-07-15 02:43:00,
2013-07-14 21:44:00,74.6,72.1,30.09,South,177,0.0,0.0,92,0.00,,BKN065,0.28,VWS V14.01,2013-07-15 02:44:00,
2013-07-14 21:45:00,74.6,72.1,30.09,South,177,0.0,0.0,92,0.00,,BKN065,0.28,VWS V14.01,2013-07-15 02:45:00,
2013-07-14 21:48:00,74.6,72.1,30.09,South,177,0.0,0.0,92,0.00,,SCT065,0.28,VWS V14.01,2013-07-15 02:48:00,
2013-07-14 21:49:00,74.8,72.3,30.09,South,177,0.0,0.0,92,0.00,,SCT065,0.28,VWS V14.01,2013-07-15 02:49:00,
2013-07-14 21:50:00,74.8,72.3,30.09,South,177,0.0,0.0,92,0.00,,SCT065,0.28,VWS V14.01,2013-07-15 02:50:00,
2013-07-14 21:51:00,74.8,72.3,30.09,South,177,0.0,0.0,92,0.00,,SCT065,0.28,VWS V14.01,2013-07-15 02:51:00,
2013-07-14 21:54:00,74.8,72.3,30.09,South,177,0.0,0.0,92,0.00,,SCT065,0.28,VWS V14.01,2013-07-15 02:54:00,
2013-07-14 21:55:00,74.8,72.3,30.09,South,177,0.0,0.0,92,0.00,,SCT065,0.28,VWS V14.01,2013-07-15 02:55:00,
2013-07-14 21:56:00,74.6,72.1,30.09,South,177,0.0,0.0,92,0.00,,SCT065,0.28,VWS V14.01,2013-07-15 02:56:00,
2013-07-14 21:59:00,74.6,72.1,30.09,South,177,0.0,0.0,92,0.00,,SCT065,0.28,VWS V14.01,2013-07-15 02:59:00,
2013-07-14 22:00:00,74.6,72.1,30.09,South,177,0.0,0.0,92,0.00,,SCT065,0.28,VWS V14.01,2013-07-15 03:00:00,
2013-07-14 22:01:00,74.5,72.0,30.09,South,177,0.0,0.0,92,0.00,,CLR,0.28,VWS V14.01,2013-07-15 03:01:00,
2013-07-14 22:04:00,74.5,72.0,30.09,South,177,0.0,0.0,92,0.00,,CLR,0.28,VWS V14.01,2013-07-15 03:04:00,
2013-07-14 22:05:00,74.5,72.0,30.09,South,177,0.0,0.0,92,0.00,,CLR,0.28,VWS V14.01,2013-07-15 03:05:00,
2013-07-14 22:07:00,74.3,71.8,30.09,South,177,0.0,0.0,92,0.00,,CLR,0.28,VWS V14.01,2013-07-15 03:07:00,
2013-07-14 22:09:00,74.3,71.8,30.09,South,177,0.0,0.0,92,0.00,,CLR,0.28,VWS V14.01,2013-07-15 03:09:00,
2013-07-14 22:10:00,74.3,71.8,30.09,South,177,0.0,0.0,92,0.00,,CLR,0.28,VWS V14.01,2013-07-15 03:10:00,
2013-07-14 22:12:00,74.3,71.8,30.09,South,177,0.0,0.0,92,0.00,,CLR,0.28,VWS V14.01,2013-07-15 03:12:00,
2013-07-14 22:14:00,74.3,71.8,30.09,South,177,0.0,0.0,92,0.00,,CLR,0.28,VWS V14.01,2013-07-15 03:14:00,
2013-07-14 22:15:00,74.1,71.6,30.08,South,177,0.0,0.0,92,0.00,,CLR,0.28,VWS V14.01,2013-07-15 03:15:00,
2013-07-14 22:16:00,74.1,71.6,30.08,South,177,0.0,0.0,92,0.00,,CLR,0.28,VWS V14.01,2013-07-15 03:16:00,
2013-07-14 22:17:00,74.1,71.6,30.08,South,177,0.0,0.0,92,0.00,,CLR,0.28,VWS V14.01,2013-07-15 03:17:00,
2013-07-14 22:19:00,74.1,71.6,30.08,South,177,0.0,0.0,92,0.00,,CLR,0.28,VWS V14.01,2013-07-15 03:19:00,
2013-07-14 22:20:00,74.1,71.6,30.08,South,177,0.0,0.0,92,0.00,,CLR,0.28,VWS V14.01,2013-07-15 03:20:00,
2013-07-14 22:21:00,74.1,71.6,30.08,South,177,0.0,0.0,92,0.00,,CLR,0.28,VWS V14.01,2013-07-15 03:21:00,
2013-07-14 22:22:00,74.1,71.6,30.08,South,177,0.0,0.0,92,0.00,,CLR,0.28,VWS V14.01,2013-07-15 03:22:00,
2013-07-14 22:24:00,73.9,71.4,30.08,South,177,0.0,0.0,92,0.00,,CLR,0.28,VWS V14.01,2013-07-15 03:24:00,
2013-07-14 22:25:00,73.9,71.4,30.08,South,177,0.0,0.0,92,0.00,,CLR,0.28,VWS V14.01,2013-07-15 03:25:00,
2013-07-14 22:26:00,73.9,71.4,30.08,South,177,0.0,0.0,92,0.00,,CLR,0.28,VWS V14.01,2013-07-15 03:26:00,
2013-07-14 22:27:00,73.9,71.4,30.08,South,177,0.0,0.0,92,0.00,,CLR,0.28,VWS V14.01,2013-07-15 03:27:00,
2013-07-14 22:29:00,73.9,71.4,30.08,South,177,0.0,0.0,92,0.00,,CLR,0.28,VWS V14.01,2013-07-15 03:29:00,
2013-07-14 22:30:00,73.9,71.4,30.08,South,177,0.0,0.0,92,0.00,,CLR,0.28,VWS V14.01,2013-07-15 03:30:00,
2013-07-14 22:31:00,73.8,71.3,30.08,South,177,0.0,0.0,92,0.00,,CLR,0.28,VWS V14.01,2013-07-15 03:31:00,
2013-07-14 22:32:00,73.8,71.3,30.08,South,177,0.0,0.0,92,0.00,,CLR,0.28,VWS V14.01,2013-07-15 03:32:00,
2013-07-14 22:34:00,73.8,71.3,30.08,South,177,0.0,0.0,92,0.00,,CLR,0.28,VWS V14.01,2013-07-15 03:34:00,
2013-07-14 22:35:00,73.8,71.3,30.08,South,177,0.0,0.0,92,0.00,,CLR,0.28,VWS V14.01,2013-07-15 03:35:00,
2013-07-14 22:36:00,73.8,71.3,30.08,South,177,0.0,0.0,92,0.00,,CLR,0.28,VWS V14.01,2013-07-15 03:36:00,
2013-07-14 22:37:00,73.8,71.3,30.08,South,177,0.0,0.0,92,0.00,,CLR,0.28,VWS V14.01,2013-07-15 03:37:00,
2013-07-14 22:39:00,73.6,71.1,30.08,South,177,0.0,0.0,92,0.00,,CLR,0.28,VWS V14.01,2013-07-15 03:39:00,
2013-07-14 22:40:00,73.6,71.1,30.08,South,177,0.0,0.0,92,0.00,,CLR,0.28,VWS V14.01,2013-07-15 03:40:00,
2013-07-14 22:41:00,73.6,71.1,30.08,South,177,0.0,0.0,92,0.00,,CLR,0.28,VWS V14.01,2013-07-15 03:41:00,
2013-07-14 22:43:00,73.6,71.1,30.08,South,177,0.0,0.0,92,0.00,,CLR,0.28,VWS V14.01,2013-07-15 03:43:00,
2013-07-14 22:45:00,73.4,70.9,30.08,South,177,0.0,0.0,92,0.00,,CLR,0.28,VWS V14.01,2013-07-15 03:45:00,
2013-07-14 22:46:00,73.4,70.9,30.08,South,177,0.0,0.0,92,0.00,,,0.28,VWS V14.01,2013-07-15 03:46:00,
2013-07-14 22:48:00,73.4,70.9,30.08,South,177,0.0,0.0,92,0.00,,,0.28,VWS V14.01,2013-07-15 03:48:00,
2013-07-14 22:50:00,73.4,70.9,30.08,South,177,0.0,0.0,92,0.00,,,0.28,VWS V14.01,2013-07-15 03:50:00,
2013-07-14 22:51:00,73.4,70.9,30.08,South,177,0.0,0.0,92,0.00,,,0.28,VWS V14.01,2013-07-15 03:51:00,
2013-07-14 22:52:00,73.2,70.7,30.08,South,177,0.0,0.0,92,0.00,,,0.28,VWS V14.01,2013-07-15 03:52:00,
2013-07-14 22:53:00,73.2,70.7,30.08,South,177,0.0,0.0,92,0.00,,,0.28,VWS V14.01,2013-07-15 03:53:00,
2013-07-14 22:55:00,73.2,70.7,30.08,South,177,0.0,0.0,92,0.00,,,0.28,VWS V14.01,2013-07-15 03:55:00,
2013-07-14 22:56:00,73.2,70.7,30.08,South,177,0.0,0.0,92,0.00,,,0.28,VWS V14.01,2013-07-15 03:56:00,
2013-07-14 22:57:00,73.2,70.7,30.08,South,177,0.0,0.0,92,0.00,,,0.28,VWS V14.01,2013-07-15 03:57:00,
2013-07-14 22:58:00,73.2,70.7,30.08,South,177,0.0,0.0,92,0.00,,,0.28,VWS V14.01,2013-07-15 03:58:00,
2013-07-14 23:00:00,73.2,71.1,30.08,South,177,0.0,0.0,93,0.00,,,0.28,VWS V14.01,2013-07-15 04:00:00,
2013-07-14 23:01:00,73.1,70.6,30.08,South,177,0.0,0.0,92,0.00,,CLR,0.28,VWS V14.01,2013-07-15 04:01:00,
2013-07-14 23:06:00,73.1,71.0,30.08,South,177,0.0,0.0,93,0.00,,CLR,0.28,VWS V14.01,2013-07-15 04:06:00,
2013-07-14 23:11:00,72.9,70.8,30.08,South,177,0.0,0.0,93,0.00,,CLR,0.28,VWS V14.01,2013-07-15 04:11:00,
2013-07-14 23:12:00,72.9,70.8,30.08,South,177,0.0,0.0,93,0.00,,CLR,0.28,VWS V14.01,2013-07-15 04:12:00,
2013-07-14 23:16:00,72.9,70.8,30.08,South,177,0.0,0.0,93,0.00,,,0.28,VWS V14.01,2013-07-15 04:16:00,
2013-07-14 23:17:00,72.9,70.8,30.08,South,177,0.0,0.0,93,0.00,,,0.28,VWS V14.01,2013-07-15 04:17:00,
2013-07-14 23:21:00,72.9,70.8,30.08,South,177,0.0,0.0,93,0.00,,,0.28,VWS V14.01,2013-07-15 04:21:00,
2013-07-14 23:22:00,72.9,70.8,30.08,South,177,0.0,0.0,93,0.00,,,0.28,VWS V14.01,2013-07-15 04:22:00,
2013-07-14 23:23:00,72.9,70.8,30.08,South,177,0.0,0.0,93,0.00,,,0.28,VWS V14.01,2013-07-15 04:23:00,
2013-07-14 23:26:00,72.9,70.8,30.08,South,177,0.0,0.0,93,0.00,,,0.28,VWS V14.01,2013-07-15 04:26:00,
2013-07-14 23:27:00,72.9,70.8,30.08,South,177,0.0,0.0,93,0.00,,,0.28,VWS V14.01,2013-07-15 04:27:00,
2013-07-14 23:28:00,72.9,70.8,30.08,South,177,0.0,0.0,93,0.00,,,0.28,VWS V14.01,2013-07-15 04:28:00,
2013-07-14 23:30:00,72.7,70.6,30.09,South,177,0.0,0.0,93,0.00,,,0.28,VWS V14.01,2013-07-15 04:30:00,
2013-07-14 23:31:00,72.7,70.6,30.09,South,177,0.0,0.0,93,0.00,,CLR,0.28,VWS V14.01,2013-07-15 04:31:00,
2013-07-14 23:32:00,72.7,70.6,30.09,South,177,0.0,0.0,93,0.00,,CLR,0.28,VWS V14.01,2013-07-15 04:32:00,
2013-07-14 23:33:00,72.7,70.6,30.09,South,177,0.0,0.0,93,0.00,,CLR,0.28,VWS V14.01,2013-07-15 04:33:00,
2013-07-14 23:36:00,72.7,70.6,30.09,South,177,0.0,0.0,93,0.00,,CLR,0.28,VWS V14.01,2013-07-15 04:36:00,
2013-07-14 23:37:00,72.7,70.6,30.09,South,177,0.0,0.0,93,0.00,,CLR,0.28,VWS V14.01,2013-07-15 04:37:00,
2013-07-14 23:38:00,72.7,70.6,30.09,South,177,0.0,0.0,93,0.00,,CLR,0.28,VWS V14.01,2013-07-15 04:38:00,
2013-07-14 23:42:00,72.7,70.6,30.09,South,177,0.0,0.0,93,0.00,,CLR,0.28,VWS V14.01,2013-07-15 04:42:00,
2013-07-14 23:43:00,72.7,70.6,30.09,South,177,0.0,0.0,93,0.00,,CLR,0.28,VWS V14.01,2013-07-15 04:43:00,
2013-07-14 23:47:00,72.9,71.1,30.09,South,177,0.0,0.0,94,0.00,,SCT085,0.28,VWS V14.01,2013-07-15 04:47:00,
2013-07-14 23:48:00,72.9,70.8,30.09,South,177,0.0,0.0,93,0.00,,SCT085,0.28,VWS V14.01,2013-07-15 04:48:00,
2013-07-14 23:52:00,73.1,71.3,30.09,South,177,0.0,0.0,94,0.00,,SCT085,0.28,VWS V14.01,2013-07-15 04:52:00,
2013-07-14 23:53:00,73.1,71.3,30.09,South,177,0.0,0.0,94,0.00,,SCT085,0.28,VWS V14.01,2013-07-15 04:53:00,
2013-07-14 23:57:00,73.2,71.4,30.09,South,177,0.0,0.0,94,0.00,,SCT085,0.28,VWS V14.01,2013-07-15 04:57:00,
2013-07-14 23:58:00,73.2,71.4,30.09,South,177,0.0,0.0,94,0.00,,SCT085,0.28,VWS V14.01,2013-07-15 04:58:00,